Time,TemperatureF,DewpointF,PressureIn,WindDirection,WindDirectionDegrees,WindSpeedMPH,WindSpeedGustMPH,Humidity,HourlyPrecipIn,Conditions,Clouds,dailyrainin,SoftwareType,DateUTC
2013-01-25 00:01:00,41.3,23.6,30.20,West,261,0.0,1.0,49,0.00,,---,0.00,VWS V14.01,2013-01-25 06:01:00,
2013-01-25 00:02:00,41.3,23.6,30.20,West,261,1.0,1.0,49,0.00,,---,0.00,VWS V14.01,2013-01-25 06:02:00,
2013-01-25 00:04:00,41.3,23.6,30.20,SE,125,1.0,3.0,49,0.00,,---,0.00,VWS V14.01,2013-01-25 06:04:00,
2013-01-25 00:07:00,41.4,23.7,30.20,SE,125,0.0,3.0,49,0.00,,---,0.00,VWS V14.01,2013-01-25 06:07:00,
2013-01-25 00:09:00,41.4,23.7,30.20,ENE,77,2.0,3.0,49,0.00,,---,0.00,VWS V14.01,2013-01-25 06:09:00,
2013-01-25 00:12:00,41.5,23.8,30.21,ENE,75,0.0,3.0,49,0.00,,---,0.00,VWS V14.01,2013-01-25 06:12:00,
2013-01-25 00:14:00,41.5,23.8,30.21,NE,46,1.0,3.0,49,0.00,,---,0.00,VWS V14.01,2013-01-25 06:14:00,
2013-01-25 00:17:00,41.5,23.8,30.22,NE,45,0.0,0.0,49,0.00,,---,0.00,VWS V14.01,2013-01-25 06:17:00,
2013-01-25 00:19:00,41.5,23.8,30.22,NE,45,0.0,1.0,49,0.00,,---,0.00,VWS V14.01,2013-01-25 06:19:00,
2013-01-25 00:22:00,41.5,23.8,30.21,NE,45,0.0,1.0,49,0.00,,---,0.00,VWS V14.01,2013-01-25 06:22:00,
2013-01-25 00:24:00,41.6,23.9,30.22,NE,55,0.0,2.0,49,0.00,,---,0.00,VWS V14.01,2013-01-25 06:24:00,
2013-01-25 00:27:00,41.6,23.9,30.22,NE,55,1.0,2.0,49,0.00,,---,0.00,VWS V14.01,2013-01-25 06:27:00,
2013-01-25 00:29:00,41.6,23.9,30.22,NE,45,0.0,2.0,49,0.00,,---,0.00,VWS V14.01,2013-01-25 06:29:00,
2013-01-25 00:32:00,41.6,23.4,30.22,North,360,0.0,0.0,48,0.00,,---,0.00,VWS V14.01,2013-01-25 06:32:00,
2013-01-25 00:34:00,41.6,23.9,30.21,North,360,0.0,0.0,49,0.00,,---,0.00,VWS V14.01,2013-01-25 06:34:00,
2013-01-25 00:37:00,41.6,23.9,30.21,North,360,0.0,1.0,49,0.00,,---,0.00,VWS V14.01,2013-01-25 06:37:00,
2013-01-25 00:39:00,41.6,23.9,30.21,North,360,0.0,1.0,49,0.00,,---,0.00,VWS V14.01,2013-01-25 06:39:00,
2013-01-25 00:42:00,41.6,23.9,30.20,ESE,119,1.0,2.0,49,0.00,,---,0.00,VWS V14.01,2013-01-25 06:42:00,
2013-01-25 00:44:00,41.6,23.9,30.20,SE,128,2.0,3.0,49,0.00,,---,0.00,VWS V14.01,2013-01-25 06:44:00,
2013-01-25 00:47:00,41.6,24.4,30.20,SE,137,1.0,1.0,50,0.00,,---,0.00,VWS V14.01,2013-01-25 06:47:00,
2013-01-25 00:48:00,41.6,23.9,30.20,SE,138,0.0,1.0,49,0.00,,---,0.00,VWS V14.01,2013-01-25 06:48:00,
2013-01-25 00:49:00,41.7,24.5,30.20,South,189,0.0,1.0,50,0.00,,---,0.00,VWS V14.01,2013-01-25 06:49:00,
2013-01-25 00:52:00,41.7,24.5,30.20,SW,225,0.0,2.0,50,0.00,,---,0.00,VWS V14.01,2013-01-25 06:52:00,
2013-01-25 00:53:00,41.7,24.5,30.20,SW,225,0.0,2.0,50,0.00,,---,0.00,VWS V14.01,2013-01-25 06:53:00,
2013-01-25 00:55:00,41.7,24.5,30.20,SW,225,1.0,2.0,50,0.00,,---,0.00,VWS V14.01,2013-01-25 06:55:00,
2013-01-25 00:57:00,41.7,24.5,30.20,South,172,0.0,3.0,50,0.00,,---,0.00,VWS V14.01,2013-01-25 06:57:00,
2013-01-25 00:58:00,41.7,24.5,30.20,SW,221,2.0,3.0,50,0.00,,---,0.00,VWS V14.01,2013-01-25 06:58:00,
2013-01-25 01:00:00,41.7,24.0,30.20,SW,221,0.0,3.0,49,0.00,,---,0.00,VWS V14.01,2013-01-25 07:00:00,
2013-01-25 01:02:00,41.7,24.5,30.20,SW,221,0.0,0.0,50,0.00,,---,0.00,VWS V14.01,2013-01-25 07:02:00,
2013-01-25 01:03:00,41.7,24.5,30.19,SW,221,0.0,0.0,50,0.00,,---,0.00,VWS V14.01,2013-01-25 07:03:00,
2013-01-25 01:05:00,41.7,24.0,30.20,SW,224,0.0,1.0,49,0.00,,---,0.00,VWS V14.01,2013-01-25 07:05:00,
2013-01-25 01:07:00,41.7,24.5,30.20,South,175,3.0,3.0,50,0.00,,---,0.00,VWS V14.01,2013-01-25 07:07:00,
2013-01-25 01:08:00,41.7,24.5,30.20,South,183,0.0,3.0,50,0.00,,---,0.00,VWS V14.01,2013-01-25 07:08:00,
2013-01-25 01:10:00,41.8,24.1,30.19,South,184,0.0,3.0,49,0.00,,---,0.00,VWS V14.01,2013-01-25 07:10:00,
2013-01-25 01:12:00,41.8,24.5,30.19,South,171,1.0,3.0,50,0.00,,---,0.00,VWS V14.01,2013-01-25 07:12:00,
2013-01-25 01:13:00,41.7,24.5,30.18,ENE,78,0.0,3.0,50,0.00,,---,0.00,VWS V14.01,2013-01-25 07:13:00,
2013-01-25 01:15:00,41.8,24.5,30.18,South,188,1.0,3.0,50,0.00,,---,0.00,VWS V14.01,2013-01-25 07:15:00,
2013-01-25 01:17:00,41.8,24.5,30.18,SW,221,1.0,3.0,50,0.00,,---,0.00,VWS V14.01,2013-01-25 07:17:00,
2013-01-25 01:18:00,41.8,24.5,30.18,SW,223,1.0,3.0,50,0.00,,---,0.00,VWS V14.01,2013-01-25 07:18:00,
2013-01-25 01:20:00,41.8,24.1,30.18,SSW,212,1.0,4.0,49,0.00,,---,0.00,VWS V14.01,2013-01-25 07:20:00,
2013-01-25 01:23:00,41.8,24.5,30.18,SSW,193,1.0,4.0,50,0.00,,---,0.00,VWS V14.01,2013-01-25 07:23:00,
2013-01-25 01:24:00,41.8,24.5,30.17,South,190,1.0,4.0,50,0.00,,---,0.00,VWS V14.01,2013-01-25 07:24:00,
2013-01-25 01:25:00,41.8,24.5,30.17,SSE,167,0.0,4.0,50,0.00,,---,0.00,VWS V14.01,2013-01-25 07:25:00,
2013-01-25 01:28:00,41.9,25.1,30.17,SSE,168,0.0,4.0,51,0.00,,---,0.00,VWS V14.01,2013-01-25 07:28:00,
2013-01-25 01:29:00,41.8,25.0,30.17,South,191,0.0,4.0,51,0.00,,---,0.00,VWS V14.01,2013-01-25 07:29:00,
2013-01-25 01:30:00,41.8,25.0,30.17,SSW,204,0.0,4.0,51,0.00,,---,0.00,VWS V14.01,2013-01-25 07:30:00,
2013-01-25 01:33:00,41.8,25.5,30.17,NW,305,1.0,2.0,52,0.00,,---,0.00,VWS V14.01,2013-01-25 07:33:00,
2013-01-25 01:34:00,41.8,25.5,30.18,NW,306,0.0,2.0,52,0.00,,---,0.00,VWS V14.01,2013-01-25 07:34:00,
2013-01-25 01:35:00,41.9,25.1,30.18,NW,305,0.0,2.0,51,0.00,,---,0.00,VWS V14.01,2013-01-25 07:35:00,
2013-01-25 01:38:00,41.8,25.5,30.17,WNW,287,0.0,2.0,52,0.00,,---,0.00,VWS V14.01,2013-01-25 07:38:00,
2013-01-25 01:39:00,41.8,25.0,30.17,WNW,288,1.0,2.0,51,0.00,,---,0.00,VWS V14.01,2013-01-25 07:39:00,
2013-01-25 01:40:00,41.8,25.5,30.17,WNW,287,0.0,2.0,52,0.00,,---,0.00,VWS V14.01,2013-01-25 07:40:00,
2013-01-25 01:43:00,41.9,25.6,30.17,WNW,288,1.0,2.0,52,0.00,,---,0.00,VWS V14.01,2013-01-25 07:43:00,
2013-01-25 01:44:00,41.8,25.0,30.17,WNW,288,0.0,2.0,51,0.00,,---,0.00,VWS V14.01,2013-01-25 07:44:00,
2013-01-25 01:46:00,41.9,25.1,30.17,SE,127,0.0,1.0,51,0.00,,---,0.00,VWS V14.01,2013-01-25 07:46:00,
2013-01-25 01:48:00,41.9,25.1,30.17,SSW,212,0.0,2.0,51,0.00,,---,0.00,VWS V14.01,2013-01-25 07:48:00,
2013-01-25 01:49:00,41.8,25.5,30.16,SSW,212,0.0,2.0,52,0.00,,---,0.00,VWS V14.01,2013-01-25 07:49:00,
2013-01-25 01:51:00,41.8,25.5,30.16,SW,225,0.0,2.0,52,0.00,,---,0.00,VWS V14.01,2013-01-25 07:51:00,
2013-01-25 01:53:00,41.9,25.6,30.16,SW,217,0.0,2.0,52,0.00,,---,0.00,VWS V14.01,2013-01-25 07:53:00,
2013-01-25 01:54:00,41.8,25.5,30.16,South,170,2.0,2.0,52,0.00,,---,0.00,VWS V14.01,2013-01-25 07:54:00,
2013-01-25 01:56:00,41.9,25.6,30.16,SW,225,0.0,2.0,52,0.00,,---,0.00,VWS V14.01,2013-01-25 07:56:00,
2013-01-25 01:58:00,41.9,25.6,30.16,SW,225,0.0,2.0,52,0.00,,---,0.00,VWS V14.01,2013-01-25 07:58:00,
2013-01-25 01:59:00,41.9,25.6,30.16,SW,225,1.0,2.0,52,0.00,,---,0.00,VWS V14.01,2013-01-25 07:59:00,
2013-01-25 02:01:00,41.9,26.0,30.16,SW,225,0.0,0.0,53,0.00,,---,0.00,VWS V14.01,2013-01-25 08:01:00,
2013-01-25 02:03:00,42.0,25.7,30.16,SW,225,0.0,1.0,52,0.00,,---,0.00,VWS V14.01,2013-01-25 08:03:00,
2013-01-25 02:04:00,42.0,25.7,30.16,West,270,0.0,1.0,52,0.00,,---,0.00,VWS V14.01,2013-01-25 08:04:00,
2013-01-25 02:06:00,42.0,26.1,30.16,SW,230,1.0,1.0,53,0.00,,---,0.00,VWS V14.01,2013-01-25 08:06:00,
2013-01-25 02:08:00,42.1,25.8,30.16,SW,230,0.0,1.0,52,0.00,,---,0.00,VWS V14.01,2013-01-25 08:08:00,
2013-01-25 02:09:00,42.1,25.8,30.16,SW,228,1.0,1.0,52,0.00,,---,0.00,VWS V14.01,2013-01-25 08:09:00,
2013-01-25 02:11:00,42.1,25.8,30.16,SW,228,0.0,2.0,52,0.00,,---,0.00,VWS V14.01,2013-01-25 08:11:00,
2013-01-25 02:14:00,42.2,26.3,30.16,SW,228,1.0,2.0,53,0.00,,---,0.00,VWS V14.01,2013-01-25 08:14:00,
2013-01-25 02:16:00,42.2,26.3,30.16,SW,216,0.0,1.0,53,0.00,,---,0.00,VWS V14.01,2013-01-25 08:16:00,
2013-01-25 02:19:00,42.3,25.9,30.15,South,191,1.0,2.0,52,0.00,,---,0.00,VWS V14.01,2013-01-25 08:19:00,
2013-01-25 02:21:00,42.4,26.0,30.15,SW,214,2.0,2.0,52,0.00,,---,0.00,VWS V14.01,2013-01-25 08:21:00,
2013-01-25 02:24:00,42.4,26.5,30.15,SSW,212,1.0,4.0,53,0.00,,---,0.00,VWS V14.01,2013-01-25 08:24:00,
2013-01-25 02:25:00,42.4,26.5,30.15,SW,230,1.0,4.0,53,0.00,,---,0.00,VWS V14.01,2013-01-25 08:25:00,
2013-01-25 02:26:00,42.5,26.6,30.14,SSW,213,1.0,4.0,53,0.00,,---,0.00,VWS V14.01,2013-01-25 08:26:00,
2013-01-25 02:29:00,42.6,26.7,30.14,SSW,194,1.0,4.0,53,0.00,,---,0.00,VWS V14.01,2013-01-25 08:29:00,
2013-01-25 02:30:00,42.6,26.7,30.14,SSW,195,0.0,4.0,53,0.00,,---,0.00,VWS V14.01,2013-01-25 08:30:00,
2013-01-25 02:31:00,42.6,26.7,30.14,SSW,197,0.0,1.0,53,0.00,,---,0.00,VWS V14.01,2013-01-25 08:31:00,
2013-01-25 02:34:00,42.6,26.7,30.14,SSW,197,0.0,1.0,53,0.00,,---,0.00,VWS V14.01,2013-01-25 08:34:00,
2013-01-25 02:35:00,42.7,26.8,30.14,SSW,197,0.0,1.0,53,0.00,,---,0.00,VWS V14.01,2013-01-25 08:35:00,
2013-01-25 02:36:00,42.7,27.2,30.14,SW,220,0.0,1.0,54,0.00,,---,0.00,VWS V14.01,2013-01-25 08:36:00,
2013-01-25 02:39:00,42.7,26.8,30.14,SW,218,2.0,2.0,53,0.00,,---,0.00,VWS V14.01,2013-01-25 08:39:00,
2013-01-25 02:40:00,42.7,27.2,30.14,SSE,167,1.0,2.0,54,0.00,,---,0.00,VWS V14.01,2013-01-25 08:40:00,
2013-01-25 02:41:00,42.7,27.2,30.13,South,186,1.0,2.0,54,0.00,,---,0.00,VWS V14.01,2013-01-25 08:41:00,
2013-01-25 02:44:00,42.8,27.3,30.13,South,188,2.0,2.0,54,0.00,,---,0.00,VWS V14.01,2013-01-25 08:44:00,
2013-01-25 02:45:00,42.8,27.3,30.13,WSW,245,2.0,3.0,54,0.00,,---,0.00,VWS V14.01,2013-01-25 08:45:00,
2013-01-25 02:47:00,42.8,27.3,30.13,SSW,207,1.0,3.0,54,0.00,,---,0.00,VWS V14.01,2013-01-25 08:47:00,
2013-01-25 02:49:00,42.8,27.3,30.12,South,172,3.0,4.0,54,0.00,,---,0.00,VWS V14.01,2013-01-25 08:49:00,
2013-01-25 02:50:00,42.8,27.3,30.12,SE,145,2.0,4.0,54,0.00,,---,0.00,VWS V14.01,2013-01-25 08:50:00,
2013-01-25 02:52:00,42.9,27.4,30.12,SSW,198,1.0,4.0,54,0.00,,---,0.00,VWS V14.01,2013-01-25 08:52:00,
2013-01-25 02:54:00,42.9,27.4,30.12,SSW,195,2.0,4.0,54,0.00,,---,0.00,VWS V14.01,2013-01-25 08:54:00,
2013-01-25 02:55:00,42.9,27.4,30.12,SE,127,1.0,4.0,54,0.00,,---,0.00,VWS V14.01,2013-01-25 08:55:00,
2013-01-25 02:56:00,42.9,27.4,30.12,SSE,163,1.0,4.0,54,0.00,,---,0.00,VWS V14.01,2013-01-25 08:56:00,
2013-01-25 02:57:00,42.9,27.4,30.12,South,169,0.0,4.0,54,0.00,,---,0.00,VWS V14.01,2013-01-25 08:57:00,
2013-01-25 03:00:00,42.9,27.4,30.12,SSE,167,1.0,4.0,54,0.00,,---,0.00,VWS V14.01,2013-01-25 09:00:00,
2013-01-25 03:01:00,42.9,27.4,30.12,SE,128,2.0,4.0,54,0.00,,---,0.00,VWS V14.01,2013-01-25 09:01:00,
2013-01-25 03:02:00,42.9,27.4,30.12,NW,316,1.0,2.0,54,0.00,,---,0.00,VWS V14.01,2013-01-25 09:02:00,
2013-01-25 03:05:00,43.0,27.5,30.12,SW,227,1.0,3.0,54,0.00,,---,0.00,VWS V14.01,2013-01-25 09:05:00,
2013-01-25 03:06:00,43.0,27.5,30.11,SW,223,1.0,3.0,54,0.00,,---,0.00,VWS V14.01,2013-01-25 09:06:00,
2013-01-25 03:07:00,43.0,27.5,30.11,South,179,1.0,3.0,54,0.00,,---,0.00,VWS V14.01,2013-01-25 09:07:00,
2013-01-25 03:10:00,43.0,27.5,30.11,SW,217,4.0,4.0,54,0.00,,---,0.00,VWS V14.01,2013-01-25 09:10:00,
2013-01-25 03:11:00,43.0,27.5,30.11,SW,228,0.0,4.0,54,0.00,,---,0.00,VWS V14.01,2013-01-25 09:11:00,
2013-01-25 03:12:00,43.1,28.0,30.11,South,172,3.0,4.0,55,0.00,,---,0.00,VWS V14.01,2013-01-25 09:12:00,
2013-01-25 03:15:00,43.1,27.6,30.12,SE,125,0.0,4.0,54,0.00,,---,0.00,VWS V14.01,2013-01-25 09:15:00,
2013-01-25 03:16:00,43.1,27.6,30.12,WSW,243,1.0,4.0,54,0.00,,---,0.00,VWS V14.01,2013-01-25 09:16:00,
2013-01-25 03:17:00,43.1,27.6,30.12,SSW,212,2.0,2.0,54,0.00,,---,0.00,VWS V14.01,2013-01-25 09:17:00,
2013-01-25 03:20:00,43.2,28.1,30.11,ESE,114,2.0,3.0,55,0.00,,---,0.00,VWS V14.01,2013-01-25 09:20:00,
2013-01-25 03:21:00,43.2,27.7,30.11,SSE,167,0.0,3.0,54,0.00,,---,0.00,VWS V14.01,2013-01-25 09:21:00,
2013-01-25 03:22:00,43.2,27.7,30.11,SSW,209,0.0,3.0,54,0.00,,---,0.00,VWS V14.01,2013-01-25 09:22:00,
2013-01-25 03:25:00,43.2,28.1,30.11,SE,143,3.0,3.0,55,0.00,,---,0.00,VWS V14.01,2013-01-25 09:25:00,
2013-01-25 03:26:00,43.2,28.1,30.11,South,172,1.0,3.0,55,0.00,,---,0.00,VWS V14.01,2013-01-25 09:26:00,
2013-01-25 03:27:00,43.3,27.8,30.11,South,174,0.0,5.0,54,0.00,,---,0.00,VWS V14.01,2013-01-25 09:27:00,
2013-01-25 03:30:00,43.3,28.2,30.11,SW,219,1.0,5.0,55,0.00,,---,0.00,VWS V14.01,2013-01-25 09:30:00,
2013-01-25 03:31:00,43.3,27.8,30.11,SW,219,0.0,5.0,54,0.00,,---,0.00,VWS V14.01,2013-01-25 09:31:00,
2013-01-25 03:32:00,43.4,28.3,30.11,SW,225,2.0,2.0,55,0.00,,---,0.00,VWS V14.01,2013-01-25 09:32:00,
2013-01-25 03:35:00,43.4,28.3,30.11,SW,217,2.0,3.0,55,0.00,,---,0.00,VWS V14.01,2013-01-25 09:35:00,
2013-01-25 03:36:00,43.4,28.3,30.11,SSE,167,3.0,5.0,55,0.00,,---,0.00,VWS V14.01,2013-01-25 09:36:00,
2013-01-25 03:37:00,43.4,28.3,30.11,South,177,4.0,5.0,55,0.00,,---,0.00,VWS V14.01,2013-01-25 09:37:00,
2013-01-25 03:40:00,43.5,28.4,30.11,SE,144,0.0,5.0,55,0.00,,---,0.00,VWS V14.01,2013-01-25 09:40:00,
2013-01-25 03:41:00,43.5,28.4,30.10,SW,214,1.0,5.0,55,0.00,,---,0.00,VWS V14.01,2013-01-25 09:41:00,
2013-01-25 03:42:00,43.5,28.4,30.10,SW,214,1.0,5.0,55,0.00,,---,0.00,VWS V14.01,2013-01-25 09:42:00,
2013-01-25 03:45:00,43.5,28.4,30.10,SW,214,1.0,5.0,55,0.00,,---,0.00,VWS V14.01,2013-01-25 09:45:00,
2013-01-25 03:46:00,43.5,28.4,30.10,SW,220,0.0,2.0,55,0.00,,---,0.00,VWS V14.01,2013-01-25 09:46:00,
2013-01-25 03:47:00,43.5,28.9,30.10,SW,219,0.0,2.0,56,0.00,,---,0.00,VWS V14.01,2013-01-25 09:47:00,
2013-01-25 03:50:00,43.6,28.5,30.10,SSE,167,3.0,3.0,55,0.00,,---,0.00,VWS V14.01,2013-01-25 09:50:00,
2013-01-25 03:51:00,43.6,29.0,30.10,ESE,115,1.0,3.0,56,0.00,,---,0.00,VWS V14.01,2013-01-25 09:51:00,
2013-01-25 03:52:00,43.7,29.0,30.10,SSW,212,1.0,3.0,56,0.00,,---,0.00,VWS V14.01,2013-01-25 09:52:00,
2013-01-25 03:55:00,43.7,29.0,30.10,SSW,195,0.0,3.0,56,0.00,,---,0.00,VWS V14.01,2013-01-25 09:55:00,
2013-01-25 03:56:00,43.8,29.1,30.10,SW,216,0.0,4.0,56,0.00,,---,0.00,VWS V14.01,2013-01-25 09:56:00,
2013-01-25 03:57:00,43.8,29.6,30.10,SW,232,3.0,4.0,57,0.00,,---,0.00,VWS V14.01,2013-01-25 09:57:00,
2013-01-25 03:58:00,43.8,29.6,30.10,SSE,151,0.0,4.0,57,0.00,,---,0.00,VWS V14.01,2013-01-25 09:58:00,
2013-01-25 04:00:00,44.0,29.8,30.10,South,185,2.0,4.0,57,0.00,,---,0.00,VWS V14.01,2013-01-25 10:00:00,
2013-01-25 04:01:00,44.0,29.8,30.10,South,186,2.0,2.0,57,0.00,,---,0.00,VWS V14.01,2013-01-25 10:01:00,
2013-01-25 04:02:00,44.1,29.9,30.10,SW,224,1.0,3.0,57,0.00,,---,0.00,VWS V14.01,2013-01-25 10:02:00,
2013-01-25 04:03:00,44.1,29.9,30.10,SSW,206,1.0,3.0,57,0.00,,---,0.00,VWS V14.01,2013-01-25 10:03:00,
2013-01-25 04:05:00,44.2,30.0,30.10,SSE,156,0.0,3.0,57,0.00,,---,0.00,VWS V14.01,2013-01-25 10:05:00,
2013-01-25 04:08:00,44.3,30.0,30.10,South,173,2.0,3.0,57,0.00,,---,0.00,VWS V14.01,2013-01-25 10:08:00,
2013-01-25 04:09:00,44.3,30.0,30.10,SSW,203,0.0,3.0,57,0.00,,---,0.00,VWS V14.01,2013-01-25 10:09:00,
2013-01-25 04:10:00,44.3,30.0,30.10,SSW,202,0.0,3.0,57,0.00,,---,0.00,VWS V14.01,2013-01-25 10:10:00,
2013-01-25 04:11:00,44.3,30.0,30.10,SSW,207,0.0,3.0,57,0.00,,---,0.00,VWS V14.01,2013-01-25 10:11:00,
2013-01-25 04:16:00,44.4,30.1,30.10,SW,227,0.0,0.0,57,0.00,,---,0.00,VWS V14.01,2013-01-25 10:16:00,
2013-01-25 04:21:00,44.5,30.2,30.11,SW,216,1.0,2.0,57,0.00,,---,0.00,VWS V14.01,2013-01-25 10:21:00,
2013-01-25 04:26:00,44.6,30.8,30.11,SSW,202,0.0,2.0,58,0.00,,---,0.00,VWS V14.01,2013-01-25 10:26:00,
2013-01-25 04:31:00,44.7,31.3,30.11,SW,214,0.0,0.0,59,0.00,,---,0.00,VWS V14.01,2013-01-25 10:31:00,
2013-01-25 04:36:00,44.8,31.4,30.10,SW,214,1.0,2.0,59,0.00,,---,0.00,VWS V14.01,2013-01-25 10:36:00,
2013-01-25 04:41:00,45.1,32.1,30.11,SW,219,2.0,4.0,60,0.00,,---,0.00,VWS V14.01,2013-01-25 10:41:00,
2013-01-25 04:46:00,45.3,31.8,30.10,South,188,2.0,3.0,59,0.00,,---,0.00,VWS V14.01,2013-01-25 10:46:00,
2013-01-25 04:47:00,45.3,31.8,30.10,South,189,1.0,3.0,59,0.00,,---,0.00,VWS V14.01,2013-01-25 10:47:00,
2013-01-25 04:51:00,45.3,31.8,30.10,South,183,2.0,4.0,59,0.00,,---,0.00,VWS V14.01,2013-01-25 10:51:00,
2013-01-25 04:52:00,45.3,31.8,30.10,South,186,1.0,4.0,59,0.00,,---,0.00,VWS V14.01,2013-01-25 10:52:00,
2013-01-25 04:56:00,45.4,31.9,30.09,South,178,2.0,5.0,59,0.00,,---,0.00,VWS V14.01,2013-01-25 10:56:00,
2013-01-25 04:57:00,45.4,31.9,30.08,South,187,4.0,5.0,59,0.00,,---,0.00,VWS V14.01,2013-01-25 10:57:00,
2013-01-25 05:01:00,45.5,32.4,30.08,South,179,4.0,4.0,60,0.00,,---,0.00,VWS V14.01,2013-01-25 11:01:00,
2013-01-25 05:02:00,45.5,32.4,30.08,South,182,5.0,6.0,60,0.00,,---,0.00,VWS V14.01,2013-01-25 11:02:00,
2013-01-25 05:07:00,45.5,32.8,30.08,SE,146,4.0,7.0,61,0.00,,---,0.00,VWS V14.01,2013-01-25 11:07:00,
2013-01-25 05:12:00,45.7,33.4,30.07,South,187,3.0,7.0,62,0.00,,---,0.00,VWS V14.01,2013-01-25 11:12:00,
2013-01-25 05:17:00,45.9,33.6,30.07,SW,225,2.0,5.0,62,0.00,,---,0.00,VWS V14.01,2013-01-25 11:17:00,
2013-01-25 05:18:00,45.9,33.6,30.07,South,172,4.0,5.0,62,0.00,,---,0.00,VWS V14.01,2013-01-25 11:18:00,
2013-01-25 05:22:00,46.0,34.1,30.07,SW,226,2.0,6.0,63,0.00,,---,0.00,VWS V14.01,2013-01-25 11:22:00,
2013-01-25 05:23:00,46.0,34.1,30.07,SSW,198,1.0,6.0,63,0.00,,---,0.00,VWS V14.01,2013-01-25 11:23:00,
2013-01-25 05:27:00,46.1,34.6,30.07,SSW,202,6.0,6.0,64,0.00,,---,0.00,VWS V14.01,2013-01-25 11:27:00,
2013-01-25 05:28:00,46.2,34.7,30.06,South,184,2.0,6.0,64,0.00,,---,0.00,VWS V14.01,2013-01-25 11:28:00,
2013-01-25 05:32:00,46.3,34.8,30.06,SSW,200,3.0,4.0,64,0.00,,---,0.00,VWS V14.01,2013-01-25 11:32:00,
2013-01-25 05:33:00,46.3,34.8,30.06,SSW,204,3.0,5.0,64,0.00,,---,0.00,VWS V14.01,2013-01-25 11:33:00,
2013-01-25 05:37:00,46.4,34.9,30.06,South,172,2.0,5.0,64,0.00,,---,0.00,VWS V14.01,2013-01-25 11:37:00,
2013-01-25 05:38:00,46.4,34.9,30.06,South,187,7.0,8.0,64,0.00,,---,0.00,VWS V14.01,2013-01-25 11:38:00,
2013-01-25 05:42:00,46.5,35.0,30.05,South,182,3.0,8.0,64,0.00,,---,0.00,VWS V14.01,2013-01-25 11:42:00,
2013-01-25 05:43:00,46.5,35.0,30.05,SSW,199,2.0,8.0,64,0.00,,---,0.00,VWS V14.01,2013-01-25 11:43:00,
2013-01-25 05:47:00,46.5,35.4,30.05,South,187,4.0,5.0,65,0.00,,---,0.00,VWS V14.01,2013-01-25 11:47:00,
2013-01-25 05:48:00,46.6,35.5,30.05,South,187,3.0,8.0,65,0.00,,---,0.00,VWS V14.01,2013-01-25 11:48:00,
2013-01-25 05:49:00,46.6,35.9,30.05,South,189,6.0,8.0,66,0.00,,---,0.00,VWS V14.01,2013-01-25 11:49:00,
2013-01-25 05:52:00,46.7,36.0,30.05,WSW,240,2.0,8.0,66,0.00,,---,0.00,VWS V14.01,2013-01-25 11:52:00,
2013-01-25 05:53:00,46.8,36.4,30.05,SW,230,5.0,8.0,67,0.00,,---,0.00,VWS V14.01,2013-01-25 11:53:00,
2013-01-25 05:54:00,46.8,36.4,30.05,South,180,8.0,8.0,67,0.00,,---,0.00,VWS V14.01,2013-01-25 11:54:00,
2013-01-25 05:57:00,47.0,37.0,30.05,South,180,8.0,12.0,68,0.00,,---,0.00,VWS V14.01,2013-01-25 11:57:00,
2013-01-25 05:58:00,47.0,37.0,30.05,SW,216,3.0,12.0,68,0.00,,---,0.00,VWS V14.01,2013-01-25 11:58:00,
2013-01-25 05:59:00,47.1,37.5,30.05,South,172,3.0,12.0,69,0.00,,---,0.00,VWS V14.01,2013-01-25 11:59:00,
2013-01-25 06:02:00,47.2,37.9,30.04,South,172,4.0,7.0,70,0.00,,---,0.00,VWS V14.01,2013-01-25 12:02:00,
2013-01-25 06:03:00,47.2,37.9,30.04,SE,139,2.0,7.0,70,0.00,,---,0.00,VWS V14.01,2013-01-25 12:03:00,
2013-01-25 06:04:00,47.3,38.4,30.04,South,176,4.0,9.0,71,0.00,,---,0.00,VWS V14.01,2013-01-25 12:04:00,
2013-01-25 06:07:00,47.5,38.9,30.04,SW,235,1.0,9.0,72,0.00,,---,0.00,VWS V14.01,2013-01-25 12:07:00,
2013-01-25 06:08:00,47.5,38.9,30.04,SE,136,2.0,9.0,72,0.00,,---,0.00,VWS V14.01,2013-01-25 12:08:00,
2013-01-25 06:09:00,47.6,39.0,30.04,SW,216,2.0,9.0,72,0.00,,---,0.00,VWS V14.01,2013-01-25 12:09:00,
2013-01-25 06:12:00,47.7,39.5,30.05,SSW,213,2.0,9.0,73,0.00,,---,0.00,VWS V14.01,2013-01-25 12:12:00,
2013-01-25 06:13:00,47.8,39.6,30.05,SW,214,1.0,9.0,73,0.00,,---,0.00,VWS V14.01,2013-01-25 12:13:00,
2013-01-25 06:14:00,47.8,39.6,30.05,SSW,209,4.0,9.0,73,0.00,,---,0.00,VWS V14.01,2013-01-25 12:14:00,
2013-01-25 06:17:00,48.0,39.8,30.04,South,186,4.0,8.0,73,0.00,,---,0.00,VWS V14.01,2013-01-25 12:17:00,
2013-01-25 06:18:00,48.0,39.8,30.04,SW,228,1.0,8.0,73,0.00,,---,0.00,VWS V14.01,2013-01-25 12:18:00,
2013-01-25 06:19:00,48.0,39.8,30.04,SSW,199,6.0,8.0,73,0.00,,---,0.00,VWS V14.01,2013-01-25 12:19:00,
2013-01-25 06:22:00,48.2,40.3,30.04,SW,217,10.0,10.0,74,0.00,,---,0.00,VWS V14.01,2013-01-25 12:22:00,
2013-01-25 06:23:00,48.2,40.3,30.04,SSW,205,5.0,10.0,74,0.00,,---,0.00,VWS V14.01,2013-01-25 12:23:00,
2013-01-25 06:24:00,48.3,40.8,30.04,SW,221,5.0,10.0,75,0.00,,---,0.00,VWS V14.01,2013-01-25 12:24:00,
2013-01-25 06:28:00,48.5,41.3,30.05,SW,214,7.0,10.0,76,0.00,,---,0.00,VWS V14.01,2013-01-25 12:28:00,
2013-01-25 06:29:00,48.5,41.3,30.05,SSE,160,5.0,10.0,76,0.00,,---,0.00,VWS V14.01,2013-01-25 12:29:00,
2013-01-25 06:33:00,48.9,42.3,30.05,South,181,6.0,13.0,78,0.00,,---,0.00,VWS V14.01,2013-01-25 12:33:00,
2013-01-25 06:34:00,49.0,42.5,30.04,West,262,2.0,13.0,78,0.00,,---,0.00,VWS V14.01,2013-01-25 12:34:00,
2013-01-25 06:38:00,49.2,42.6,30.05,SSW,192,7.0,13.0,78,0.00,,---,0.00,VWS V14.01,2013-01-25 12:38:00,
2013-01-25 06:39:00,49.3,43.1,30.05,SSW,202,8.0,13.0,79,0.00,,---,0.00,VWS V14.01,2013-01-25 12:39:00,
2013-01-25 06:40:00,49.3,43.1,30.05,SSE,167,6.0,13.0,79,0.00,,---,0.00,VWS V14.01,2013-01-25 12:40:00,
2013-01-25 06:43:00,49.6,44.0,30.04,SW,223,6.0,13.0,81,0.00,,---,0.00,VWS V14.01,2013-01-25 12:43:00,
2013-01-25 06:44:00,49.7,44.4,30.04,SW,226,8.0,15.0,82,0.00,,---,0.00,VWS V14.01,2013-01-25 12:44:00,
2013-01-25 06:45:00,49.8,44.5,30.04,SW,225,8.0,15.0,82,0.00,,---,0.00,VWS V14.01,2013-01-25 12:45:00,
2013-01-25 06:48:00,50.1,45.2,30.05,SW,214,6.0,12.0,83,0.00,,---,0.00,VWS V14.01,2013-01-25 12:48:00,
2013-01-25 06:49:00,50.1,45.2,30.04,SSW,195,3.0,12.0,83,0.00,,---,0.00,VWS V14.01,2013-01-25 12:49:00,
2013-01-25 06:50:00,50.1,45.2,30.04,South,182,7.0,12.0,83,0.00,,---,0.00,VWS V14.01,2013-01-25 12:50:00,
2013-01-25 06:53:00,50.5,45.8,30.04,South,174,3.0,15.0,84,0.00,,---,0.00,VWS V14.01,2013-01-25 12:53:00,
2013-01-25 06:54:00,50.6,46.3,30.04,SW,219,6.0,15.0,85,0.00,,---,0.00,VWS V14.01,2013-01-25 12:54:00,
2013-01-25 06:55:00,50.6,46.3,30.04,SW,216,6.0,15.0,85,0.00,,---,0.00,VWS V14.01,2013-01-25 12:55:00,
2013-01-25 06:59:00,51.0,47.0,30.05,SW,225,2.0,15.0,86,0.00,,---,0.00,VWS V14.01,2013-01-25 12:59:00,
2013-01-25 07:00:00,51.1,47.1,30.05,WNW,282,2.0,15.0,86,0.00,,---,0.00,VWS V14.01,2013-01-25 13:00:00,
2013-01-25 07:04:00,51.4,47.4,30.08,West,274,8.0,15.0,86,0.00,,---,0.00,VWS V14.01,2013-01-25 13:04:00,
2013-01-25 07:05:00,51.4,47.4,30.08,WNW,285,8.0,15.0,86,0.00,,---,0.00,VWS V14.01,2013-01-25 13:05:00,
2013-01-25 07:09:00,51.4,47.0,30.08,WNW,290,9.0,15.0,85,0.00,,---,0.00,VWS V14.01,2013-01-25 13:09:00,
2013-01-25 07:10:00,51.4,47.0,30.08,NW,311,4.0,15.0,85,0.00,,---,0.00,VWS V14.01,2013-01-25 13:10:00,
2013-01-25 07:14:00,51.3,47.0,30.09,WNW,285,5.0,15.0,85,0.00,,---,0.00,VWS V14.01,2013-01-25 13:14:00,
2013-01-25 07:15:00,51.2,46.8,30.09,WNW,287,9.0,15.0,85,0.00,,---,0.00,VWS V14.01,2013-01-25 13:15:00,
2013-01-25 07:19:00,51.3,47.0,30.10,WNW,295,5.0,9.0,85,0.00,,---,0.00,VWS V14.01,2013-01-25 13:19:00,
2013-01-25 07:20:00,51.3,47.3,30.10,WNW,290,5.0,9.0,86,0.00,,---,0.00,VWS V14.01,2013-01-25 13:20:00,
2013-01-25 07:24:00,51.3,47.6,30.10,WNW,288,8.0,13.0,87,0.00,,---,0.00,VWS V14.01,2013-01-25 13:24:00,
2013-01-25 07:25:00,51.4,47.7,30.11,NW,305,11.0,13.0,87,0.00,,---,0.00,VWS V14.01,2013-01-25 13:25:00,
2013-01-25 07:29:00,51.4,47.7,30.11,West,280,9.0,14.0,87,0.00,,---,0.00,VWS V14.01,2013-01-25 13:29:00,
2013-01-25 07:30:00,51.4,47.7,30.11,WNW,299,8.0,14.0,87,0.00,,---,0.00,VWS V14.01,2013-01-25 13:30:00,
2013-01-25 07:31:00,51.4,47.7,30.11,WNW,294,7.0,14.0,87,0.00,,---,0.00,VWS V14.01,2013-01-25 13:31:00,
2013-01-25 07:34:00,51.2,47.5,30.11,WNW,286,11.0,12.0,87,0.01,,---,0.01,VWS V14.01,2013-01-25 13:34:00,
2013-01-25 07:35:00,51.1,47.4,30.11,NW,304,6.0,12.0,87,0.01,,---,0.01,VWS V14.01,2013-01-25 13:35:00,
2013-01-25 07:36:00,51.0,47.3,30.11,NW,304,7.0,12.0,87,0.02,,---,0.02,VWS V14.01,2013-01-25 13:36:00,
2013-01-25 07:39:00,50.6,47.2,30.11,WNW,288,2.0,12.0,88,0.03,,---,0.03,VWS V14.01,2013-01-25 13:39:00,
2013-01-25 07:41:00,50.6,47.2,30.11,WNW,288,2.0,12.0,88,0.03,,---,0.03,VWS V14.01,2013-01-25 13:41:00,
2013-01-25 07:44:00,49.7,45.7,30.11,North,358,4.0,12.0,86,0.03,,---,0.03,VWS V14.01,2013-01-25 13:44:00,
2013-01-25 07:46:00,48.8,43.6,30.11,North,5,2.0,2.0,82,0.03,,---,0.03,VWS V14.01,2013-01-25 13:46:00,
2013-01-25 07:49:00,46.5,41.0,30.12,WNW,300,0.0,2.0,81,0.03,,---,0.03,VWS V14.01,2013-01-25 13:49:00,
2013-01-25 07:51:00,45.8,40.6,30.11,NNW,342,2.0,2.0,82,0.03,,---,0.03,VWS V14.01,2013-01-25 13:51:00,
2013-01-25 07:54:00,44.1,39.3,30.11,WNW,301,0.0,2.0,83,0.03,,---,0.03,VWS V14.01,2013-01-25 13:54:00,
2013-01-25 07:56:00,43.7,38.9,30.11,NNW,332,1.0,2.0,83,0.04,,---,0.04,VWS V14.01,2013-01-25 13:56:00,
2013-01-25 08:00:00,42.4,38.2,30.12,NW,314,0.0,2.0,85,0.04,,---,0.04,VWS V14.01,2013-01-25 14:00:00,
2013-01-25 08:01:00,42.0,37.8,30.12,NNW,344,2.0,2.0,85,0.04,,---,0.04,VWS V14.01,2013-01-25 14:01:00,
2013-01-25 08:02:00,41.9,37.7,30.12,NNW,332,1.0,3.0,85,0.04,,---,0.04,VWS V14.01,2013-01-25 14:02:00,
2013-01-25 08:05:00,41.1,37.2,30.12,NNW,337,1.0,3.0,86,0.04,,---,0.04,VWS V14.01,2013-01-25 14:05:00,
2013-01-25 08:06:00,40.8,37.2,30.12,NNW,328,0.0,3.0,87,0.04,,---,0.04,VWS V14.01,2013-01-25 14:06:00,
2013-01-25 08:07:00,40.7,37.1,30.12,NW,313,0.0,3.0,87,0.04,,---,0.04,VWS V14.01,2013-01-25 14:07:00,
2013-01-25 08:10:00,40.0,36.5,30.12,NW,321,1.0,3.0,87,0.04,,---,0.04,VWS V14.01,2013-01-25 14:10:00,
2013-01-25 08:11:00,39.7,36.4,30.12,NW,313,0.0,3.0,88,0.04,,---,0.04,VWS V14.01,2013-01-25 14:11:00,
2013-01-25 08:12:00,39.6,36.3,30.12,NW,315,2.0,3.0,88,0.04,,---,0.04,VWS V14.01,2013-01-25 14:12:00,
2013-01-25 08:15:00,39.2,36.2,30.12,NW,323,0.0,3.0,89,0.04,,---,0.04,VWS V14.01,2013-01-25 14:15:00,
2013-01-25 08:16:00,39.1,36.1,30.12,NW,321,0.0,1.0,89,0.04,,---,0.04,VWS V14.01,2013-01-25 14:16:00,
2013-01-25 08:17:00,39.0,36.0,30.12,NW,321,0.0,1.0,89,0.04,,---,0.04,VWS V14.01,2013-01-25 14:17:00,
2013-01-25 08:20:00,38.8,36.1,30.13,NW,309,0.0,2.0,90,0.04,,---,0.04,VWS V14.01,2013-01-25 14:20:00,
2013-01-25 08:21:00,38.8,36.1,30.13,NW,308,0.0,2.0,90,0.04,,---,0.04,VWS V14.01,2013-01-25 14:21:00,
2013-01-25 08:22:00,38.8,36.1,30.13,NW,309,0.0,2.0,90,0.04,,---,0.04,VWS V14.01,2013-01-25 14:22:00,
2013-01-25 08:25:00,38.7,36.3,30.14,WNW,284,1.0,2.0,91,0.04,,---,0.04,VWS V14.01,2013-01-25 14:25:00,
2013-01-25 08:26:00,38.7,36.3,30.14,NW,305,0.0,2.0,91,0.04,,---,0.04,VWS V14.01,2013-01-25 14:26:00,
2013-01-25 08:27:00,38.7,36.3,30.14,NW,326,1.0,2.0,91,0.04,,---,0.04,VWS V14.01,2013-01-25 14:27:00,
2013-01-25 08:28:00,38.7,36.3,30.14,NNW,328,1.0,2.0,91,0.04,,---,0.04,VWS V14.01,2013-01-25 14:28:00,
2013-01-25 08:30:00,38.6,36.2,30.14,NE,55,2.0,2.0,91,0.04,,---,0.04,VWS V14.01,2013-01-25 14:30:00,
2013-01-25 08:31:00,38.5,36.1,30.14,NW,318,1.0,1.0,91,0.04,,---,0.04,VWS V14.01,2013-01-25 14:31:00,
2013-01-25 08:32:00,38.4,36.0,30.14,NW,318,0.0,1.0,91,0.04,,---,0.04,VWS V14.01,2013-01-25 14:32:00,
2013-01-25 08:33:00,38.4,36.0,30.14,NW,318,0.0,1.0,91,0.04,,---,0.04,VWS V14.01,2013-01-25 14:33:00,
2013-01-25 08:35:00,38.1,35.7,30.14,NW,315,1.0,4.0,91,0.04,,---,0.04,VWS V14.01,2013-01-25 14:35:00,
2013-01-25 08:36:00,38.0,35.6,30.14,NW,326,1.0,4.0,91,0.04,,---,0.04,VWS V14.01,2013-01-25 14:36:00,
2013-01-25 08:37:00,38.0,35.6,30.14,NW,323,0.0,4.0,91,0.04,,---,0.04,VWS V14.01,2013-01-25 14:37:00,
2013-01-25 08:38:00,37.9,35.5,30.14,NW,323,0.0,4.0,91,0.04,,---,0.04,VWS V14.01,2013-01-25 14:38:00,
2013-01-25 08:41:00,37.7,35.3,30.14,NW,308,2.0,4.0,91,0.04,,---,0.04,VWS V14.01,2013-01-25 14:41:00,
2013-01-25 08:42:00,37.7,35.3,30.14,NW,311,0.0,4.0,91,0.04,,---,0.04,VWS V14.01,2013-01-25 14:42:00,
2013-01-25 08:43:00,37.6,35.2,30.14,NW,314,0.0,4.0,91,0.04,,---,0.04,VWS V14.01,2013-01-25 14:43:00,
2013-01-25 08:46:00,37.5,35.4,30.14,NW,311,0.0,4.0,92,0.04,,---,0.04,VWS V14.01,2013-01-25 14:46:00,
2013-01-25 08:47:00,37.5,35.4,30.15,NW,311,0.0,0.0,92,0.01,,---,0.04,VWS V14.01,2013-01-25 14:47:00,
2013-01-25 08:48:00,37.5,35.4,30.15,NW,311,0.0,0.0,92,0.01,,---,0.04,VWS V14.01,2013-01-25 14:48:00,
2013-01-25 08:51:00,37.4,35.3,30.15,NW,311,0.0,1.0,92,0.01,,---,0.04,VWS V14.01,2013-01-25 14:51:00,
2013-01-25 08:52:00,37.4,35.3,30.14,NNW,332,2.0,2.0,92,0.01,,---,0.04,VWS V14.01,2013-01-25 14:52:00,
2013-01-25 08:53:00,37.3,35.2,30.14,NNW,329,0.0,2.0,92,0.01,,---,0.04,VWS V14.01,2013-01-25 14:53:00,
2013-01-25 08:56:00,37.3,35.5,30.15,NNW,330,1.0,2.0,93,0.01,,---,0.04,VWS V14.01,2013-01-25 14:56:00,
2013-01-25 08:57:00,37.4,35.6,30.15,NNW,333,1.0,2.0,93,0.01,,---,0.04,VWS V14.01,2013-01-25 14:57:00,
2013-01-25 08:58:00,37.4,35.6,30.15,NNW,333,0.0,2.0,93,0.01,,---,0.04,VWS V14.01,2013-01-25 14:58:00,
2013-01-25 09:01:00,37.5,35.7,30.16,NNW,330,0.0,0.0,93,0.00,,---,0.04,VWS V14.01,2013-01-25 15:01:00,
2013-01-25 09:02:00,37.4,35.6,30.16,NNW,327,1.0,1.0,93,0.00,,---,0.04,VWS V14.01,2013-01-25 15:02:00,
2013-01-25 09:03:00,37.4,35.6,30.16,NW,326,0.0,1.0,93,0.00,,---,0.04,VWS V14.01,2013-01-25 15:03:00,
2013-01-25 09:06:00,37.4,35.6,30.16,NW,315,0.0,2.0,93,0.00,,---,0.04,VWS V14.01,2013-01-25 15:06:00,
2013-01-25 09:07:00,37.5,35.7,30.16,NW,315,0.0,2.0,93,0.00,,---,0.04,VWS V14.01,2013-01-25 15:07:00,
2013-01-25 09:08:00,37.5,35.7,30.16,NW,315,0.0,2.0,93,0.00,,---,0.04,VWS V14.01,2013-01-25 15:08:00,
2013-01-25 09:11:00,37.4,35.6,30.16,NW,315,0.0,2.0,93,0.00,,---,0.04,VWS V14.01,2013-01-25 15:11:00,
2013-01-25 09:12:00,37.5,35.7,30.16,NW,315,0.0,2.0,93,0.00,,---,0.04,VWS V14.01,2013-01-25 15:12:00,
2013-01-25 09:13:00,37.5,35.7,30.16,NW,315,0.0,2.0,93,0.00,,---,0.04,VWS V14.01,2013-01-25 15:13:00,
2013-01-25 09:16:00,37.5,35.9,30.17,NNW,335,1.0,1.0,94,0.00,,---,0.04,VWS V14.01,2013-01-25 15:16:00,
2013-01-25 09:17:00,37.6,35.8,30.17,NNE,19,1.0,3.0,93,0.00,,---,0.04,VWS V14.01,2013-01-25 15:17:00,
2013-01-25 09:18:00,37.6,35.8,30.17,NE,37,2.0,3.0,93,0.00,,---,0.04,VWS V14.01,2013-01-25 15:18:00,
2013-01-25 09:21:00,37.3,35.5,30.18,North,10,0.0,5.0,93,0.00,,---,0.04,VWS V14.01,2013-01-25 15:21:00,
2013-01-25 09:22:00,37.2,35.4,30.18,NNW,328,1.0,5.0,93,0.00,,---,0.04,VWS V14.01,2013-01-25 15:22:00,
2013-01-25 09:23:00,37.2,35.4,30.18,North,357,1.0,5.0,93,0.00,,---,0.04,VWS V14.01,2013-01-25 15:23:00,
2013-01-25 09:26:00,36.8,34.7,30.19,North,353,3.0,7.0,92,0.00,,---,0.04,VWS V14.01,2013-01-25 15:26:00,
2013-01-25 09:27:00,36.7,34.6,30.19,NNW,342,1.0,7.0,92,0.00,,---,0.04,VWS V14.01,2013-01-25 15:27:00,
2013-01-25 09:28:00,36.7,34.6,30.19,North,10,2.0,7.0,92,0.00,,---,0.04,VWS V14.01,2013-01-25 15:28:00,
2013-01-25 09:32:00,36.3,34.2,30.19,NW,324,1.0,4.0,92,0.00,,---,0.04,VWS V14.01,2013-01-25 15:32:00,
2013-01-25 09:33:00,36.2,34.1,30.19,NNW,333,1.0,4.0,92,0.00,,---,0.04,VWS V14.01,2013-01-25 15:33:00,
2013-01-25 09:37:00,36.1,34.3,30.19,NE,55,2.0,4.0,93,0.00,,---,0.04,VWS V14.01,2013-01-25 15:37:00,
2013-01-25 09:38:00,36.0,34.2,30.19,North,357,0.0,4.0,93,0.00,,---,0.04,VWS V14.01,2013-01-25 15:38:00,
2013-01-25 09:39:00,36.0,34.2,30.19,NNW,328,1.0,4.0,93,0.00,,---,0.04,VWS V14.01,2013-01-25 15:39:00,
2013-01-25 09:42:00,36.0,33.9,30.19,WNW,289,0.0,4.0,92,0.00,,---,0.04,VWS V14.01,2013-01-25 15:42:00,
2013-01-25 09:43:00,35.9,33.8,30.19,North,360,1.0,4.0,92,0.00,,---,0.04,VWS V14.01,2013-01-25 15:43:00,
2013-01-25 09:44:00,35.9,33.8,30.19,North,355,1.0,4.0,92,0.00,,---,0.04,VWS V14.01,2013-01-25 15:44:00,
2013-01-25 09:47:00,35.8,34.0,30.19,North,11,2.0,2.0,93,0.00,,---,0.04,VWS V14.01,2013-01-25 15:47:00,
2013-01-25 09:48:00,35.8,34.0,30.19,North,357,1.0,2.0,93,0.01,,---,0.05,VWS V14.01,2013-01-25 15:48:00,
2013-01-25 09:49:00,35.7,33.9,30.19,WSW,243,2.0,3.0,93,0.01,,---,0.05,VWS V14.01,2013-01-25 15:49:00,
2013-01-25 09:52:00,35.7,33.9,30.19,WNW,282,1.0,3.0,93,0.01,,---,0.05,VWS V14.01,2013-01-25 15:52:00,
2013-01-25 09:53:00,35.7,33.9,30.19,North,1,0.0,3.0,93,0.01,,---,0.05,VWS V14.01,2013-01-25 15:53:00,
2013-01-25 09:54:00,35.7,33.9,30.19,ENE,74,0.0,3.0,93,0.01,,---,0.05,VWS V14.01,2013-01-25 15:54:00,
2013-01-25 09:57:00,35.6,33.8,30.18,North,360,1.0,3.0,93,0.01,,---,0.05,VWS V14.01,2013-01-25 15:57:00,
2013-01-25 09:58:00,35.6,33.8,30.18,North,360,0.0,3.0,93,0.01,,---,0.05,VWS V14.01,2013-01-25 15:58:00,
2013-01-25 09:59:00,35.6,33.8,30.18,North,359,0.0,3.0,93,0.01,,---,0.05,VWS V14.01,2013-01-25 15:59:00,
2013-01-25 10:02:00,35.7,34.2,30.19,NW,306,0.0,1.0,94,0.02,,---,0.06,VWS V14.01,2013-01-25 16:02:00,
2013-01-25 10:03:00,35.7,34.2,30.18,NW,305,0.0,1.0,94,0.02,,---,0.06,VWS V14.01,2013-01-25 16:03:00,
2013-01-25 10:04:00,35.8,34.2,30.18,NW,305,0.0,1.0,94,0.02,,---,0.06,VWS V14.01,2013-01-25 16:04:00,
2013-01-25 10:07:00,35.8,34.2,30.18,NW,305,0.0,1.0,94,0.02,,---,0.06,VWS V14.01,2013-01-25 16:07:00,
2013-01-25 10:08:00,35.9,34.3,30.18,NW,306,0.0,1.0,94,0.02,,---,0.06,VWS V14.01,2013-01-25 16:08:00,
2013-01-25 10:10:00,35.9,34.3,30.18,NW,305,0.0,1.0,94,0.03,,---,0.07,VWS V14.01,2013-01-25 16:10:00,
2013-01-25 10:12:00,35.9,34.3,30.18,NW,305,0.0,1.0,94,0.03,,---,0.07,VWS V14.01,2013-01-25 16:12:00,
2013-01-25 10:13:00,36.0,34.4,30.18,NW,305,0.0,1.0,94,0.03,,---,0.07,VWS V14.01,2013-01-25 16:13:00,
2013-01-25 10:15:00,36.1,34.5,30.18,WNW,299,0.0,1.0,94,0.03,,---,0.07,VWS V14.01,2013-01-25 16:15:00,
2013-01-25 10:17:00,36.2,34.6,30.18,WNW,300,0.0,0.0,94,0.03,,---,0.07,VWS V14.01,2013-01-25 16:17:00,
2013-01-25 10:18:00,36.2,34.6,30.18,WNW,299,0.0,0.0,94,0.03,,---,0.07,VWS V14.01,2013-01-25 16:18:00,
2013-01-25 10:19:00,36.2,34.6,30.18,WNW,300,0.0,0.0,94,0.03,,---,0.07,VWS V14.01,2013-01-25 16:19:00,
2013-01-25 10:20:00,36.2,34.6,30.18,WNW,299,0.0,0.0,94,0.03,,---,0.07,VWS V14.01,2013-01-25 16:20:00,
2013-01-25 10:22:00,36.3,34.7,30.19,WNW,299,0.0,0.0,94,0.04,,---,0.08,VWS V14.01,2013-01-25 16:22:00,
2013-01-25 10:23:00,36.3,34.7,30.19,WNW,299,0.0,0.0,94,0.04,,---,0.08,VWS V14.01,2013-01-25 16:23:00,
2013-01-25 10:24:00,36.3,34.7,30.19,WNW,299,0.0,0.0,94,0.04,,---,0.08,VWS V14.01,2013-01-25 16:24:00,
2013-01-25 10:25:00,36.4,34.8,30.19,WNW,300,0.0,0.0,94,0.04,,---,0.08,VWS V14.01,2013-01-25 16:25:00,
2013-01-25 10:28:00,36.5,34.9,30.19,WNW,300,0.0,0.0,94,0.04,,---,0.08,VWS V14.01,2013-01-25 16:28:00,
2013-01-25 10:29:00,36.5,34.9,30.19,WNW,300,0.0,0.0,94,0.04,,---,0.08,VWS V14.01,2013-01-25 16:29:00,
2013-01-25 10:30:00,36.5,34.9,30.19,WNW,299,0.0,0.0,94,0.04,,---,0.08,VWS V14.01,2013-01-25 16:30:00,
2013-01-25 10:33:00,36.7,35.1,30.19,WNW,300,0.0,0.0,94,0.04,,---,0.08,VWS V14.01,2013-01-25 16:33:00,
2013-01-25 10:34:00,36.6,35.0,30.19,WNW,299,0.0,0.0,94,0.04,,---,0.08,VWS V14.01,2013-01-25 16:34:00,
2013-01-25 10:36:00,36.6,35.0,30.19,WNW,300,0.0,0.0,94,0.04,,---,0.08,VWS V14.01,2013-01-25 16:36:00,
2013-01-25 10:38:00,36.6,35.0,30.19,WNW,299,0.0,0.0,94,0.04,,---,0.08,VWS V14.01,2013-01-25 16:38:00,
2013-01-25 10:39:00,36.7,35.1,30.19,WNW,299,0.0,0.0,94,0.04,,---,0.08,VWS V14.01,2013-01-25 16:39:00,
2013-01-25 10:41:00,36.7,35.1,30.19,WNW,300,0.0,0.0,94,0.04,,---,0.08,VWS V14.01,2013-01-25 16:41:00,
2013-01-25 10:43:00,36.8,35.5,30.19,WNW,299,0.0,0.0,95,0.04,,---,0.08,VWS V14.01,2013-01-25 16:43:00,
2013-01-25 10:44:00,36.9,35.6,30.19,WNW,299,0.0,0.0,95,0.05,,---,0.09,VWS V14.01,2013-01-25 16:44:00,
2013-01-25 10:46:00,36.9,35.6,30.19,WNW,300,0.0,0.0,95,0.05,,---,0.09,VWS V14.01,2013-01-25 16:46:00,
2013-01-25 10:48:00,37.0,35.7,30.19,WNW,299,0.0,0.0,95,0.05,,---,0.09,VWS V14.01,2013-01-25 16:48:00,
2013-01-25 10:49:00,37.0,35.7,30.19,WNW,299,0.0,0.0,95,0.05,,---,0.09,VWS V14.01,2013-01-25 16:49:00,
2013-01-25 10:51:00,37.2,35.9,30.19,WNW,300,0.0,0.0,95,0.05,,---,0.09,VWS V14.01,2013-01-25 16:51:00,
2013-01-25 10:53:00,37.3,36.0,30.19,WNW,299,0.0,0.0,95,0.05,,---,0.09,VWS V14.01,2013-01-25 16:53:00,
2013-01-25 10:54:00,37.3,36.0,30.19,WNW,299,0.0,0.0,95,0.05,,---,0.09,VWS V14.01,2013-01-25 16:54:00,
2013-01-25 10:56:00,37.3,36.0,30.19,WNW,299,0.0,0.0,95,0.05,,---,0.09,VWS V14.01,2013-01-25 16:56:00,
2013-01-25 10:58:00,37.4,36.1,30.19,WNW,301,0.0,0.0,95,0.05,,---,0.09,VWS V14.01,2013-01-25 16:58:00,
2013-01-25 10:59:00,37.4,36.1,30.19,WNW,301,0.0,0.0,95,0.05,,---,0.09,VWS V14.01,2013-01-25 16:59:00,
2013-01-25 11:01:00,37.4,36.1,30.19,WNW,299,0.0,0.0,95,0.03,,---,0.09,VWS V14.01,2013-01-25 17:01:00,
2013-01-25 11:03:00,37.4,36.1,30.19,WNW,299,0.0,0.0,95,0.03,,---,0.09,VWS V14.01,2013-01-25 17:03:00,
2013-01-25 11:04:00,37.5,36.2,30.19,WNW,300,0.0,0.0,95,0.03,,---,0.09,VWS V14.01,2013-01-25 17:04:00,
2013-01-25 11:06:00,37.5,36.2,30.19,NW,318,1.0,1.0,95,0.03,,---,0.09,VWS V14.01,2013-01-25 17:06:00,
2013-01-25 11:08:00,37.6,36.3,30.19,NW,318,0.0,1.0,95,0.03,,---,0.09,VWS V14.01,2013-01-25 17:08:00,
2013-01-25 11:09:00,37.6,36.3,30.19,NW,318,0.0,1.0,95,0.03,,---,0.09,VWS V14.01,2013-01-25 17:09:00,
2013-01-25 11:10:00,37.6,36.3,30.19,NW,318,1.0,1.0,95,0.03,,---,0.09,VWS V14.01,2013-01-25 17:10:00,
2013-01-25 11:11:00,37.6,36.3,30.19,NW,318,0.0,1.0,95,0.03,,---,0.09,VWS V14.01,2013-01-25 17:11:00,
2013-01-25 11:13:00,37.6,36.3,30.19,NW,318,0.0,1.0,95,0.03,,---,0.09,VWS V14.01,2013-01-25 17:13:00,
2013-01-25 11:14:00,37.6,36.3,30.19,NW,318,0.0,1.0,95,0.03,,---,0.09,VWS V14.01,2013-01-25 17:14:00,
2013-01-25 11:15:00,37.6,36.3,30.19,NW,318,0.0,1.0,95,0.03,,---,0.09,VWS V14.01,2013-01-25 17:15:00,
2013-01-25 11:16:00,37.7,36.4,30.19,NW,313,0.0,0.0,95,0.02,,---,0.09,VWS V14.01,2013-01-25 17:16:00,
2013-01-25 11:18:00,37.8,36.5,30.19,NW,313,0.0,0.0,95,0.02,,---,0.09,VWS V14.01,2013-01-25 17:18:00,
2013-01-25 11:19:00,37.8,36.5,30.19,NW,312,0.0,0.0,95,0.02,,---,0.09,VWS V14.01,2013-01-25 17:19:00,
2013-01-25 11:20:00,37.8,36.5,30.19,NW,312,0.0,0.0,95,0.02,,---,0.09,VWS V14.01,2013-01-25 17:20:00,
2013-01-25 11:21:00,37.8,36.5,30.18,NW,312,0.0,0.0,95,0.03,,---,0.10,VWS V14.01,2013-01-25 17:21:00,
2013-01-25 11:23:00,37.8,36.5,30.19,NW,312,0.0,0.0,95,0.03,,---,0.10,VWS V14.01,2013-01-25 17:23:00,
2013-01-25 11:25:00,37.8,36.5,30.18,NW,313,0.0,0.0,95,0.03,,---,0.10,VWS V14.01,2013-01-25 17:25:00,
2013-01-25 11:26:00,37.9,36.6,30.18,NW,312,0.0,0.0,95,0.03,,---,0.10,VWS V14.01,2013-01-25 17:26:00,
2013-01-25 11:29:00,37.9,36.6,30.18,NW,313,0.0,0.0,95,0.03,,---,0.10,VWS V14.01,2013-01-25 17:29:00,
2013-01-25 11:30:00,37.9,36.6,30.18,NW,312,0.0,0.0,95,0.03,,---,0.10,VWS V14.01,2013-01-25 17:30:00,
2013-01-25 11:31:00,37.9,36.6,30.18,NW,312,0.0,0.0,95,0.02,,---,0.10,VWS V14.01,2013-01-25 17:31:00,
2013-01-25 11:34:00,37.9,36.6,30.18,NW,314,0.0,0.0,95,0.02,,---,0.10,VWS V14.01,2013-01-25 17:34:00,
2013-01-25 11:35:00,37.9,36.6,30.18,NW,314,0.0,0.0,95,0.02,,---,0.10,VWS V14.01,2013-01-25 17:35:00,
2013-01-25 11:37:00,37.9,36.6,30.17,NW,314,0.0,0.0,95,0.02,,---,0.10,VWS V14.01,2013-01-25 17:37:00,
2013-01-25 11:39:00,37.9,36.6,30.17,NW,312,0.0,0.0,95,0.02,,---,0.10,VWS V14.01,2013-01-25 17:39:00,
2013-01-25 11:40:00,37.9,36.6,30.17,NW,313,0.0,0.0,95,0.02,,---,0.10,VWS V14.01,2013-01-25 17:40:00,
2013-01-25 11:42:00,37.9,36.6,30.17,NW,313,0.0,0.0,95,0.02,,---,0.10,VWS V14.01,2013-01-25 17:42:00,
2013-01-25 11:44:00,37.8,36.5,30.17,NW,312,0.0,0.0,95,0.02,,---,0.10,VWS V14.01,2013-01-25 17:44:00,
2013-01-25 11:45:00,37.8,36.5,30.17,NW,313,0.0,0.0,95,0.02,,---,0.10,VWS V14.01,2013-01-25 17:45:00,
2013-01-25 11:47:00,37.8,36.5,30.18,NW,312,0.0,0.0,95,0.01,,---,0.10,VWS V14.01,2013-01-25 17:47:00,
2013-01-25 11:49:00,37.8,36.5,30.17,NW,314,0.0,0.0,95,0.01,,---,0.10,VWS V14.01,2013-01-25 17:49:00,
2013-01-25 11:50:00,37.8,36.5,30.17,NW,312,0.0,0.0,95,0.01,,---,0.10,VWS V14.01,2013-01-25 17:50:00,
2013-01-25 11:52:00,37.7,36.4,30.17,NW,313,0.0,0.0,95,0.01,,---,0.10,VWS V14.01,2013-01-25 17:52:00,
2013-01-25 11:54:00,37.8,36.5,30.17,NW,314,0.0,0.0,95,0.01,,---,0.10,VWS V14.01,2013-01-25 17:54:00,
2013-01-25 11:55:00,37.7,36.4,30.17,NW,312,0.0,0.0,95,0.01,,---,0.10,VWS V14.01,2013-01-25 17:55:00,
2013-01-25 11:57:00,37.7,36.4,30.17,NW,314,0.0,0.0,95,0.01,,---,0.10,VWS V14.01,2013-01-25 17:57:00,
2013-01-25 11:59:00,37.7,36.4,30.17,NW,314,0.0,0.0,95,0.01,,---,0.10,VWS V14.01,2013-01-25 17:59:00,
2013-01-25 12:00:00,37.7,36.4,30.17,NW,314,0.0,0.0,95,0.01,,---,0.10,VWS V14.01,2013-01-25 18:00:00,
2013-01-25 12:02:00,37.6,36.3,30.17,NW,314,0.0,0.0,95,0.01,,---,0.10,VWS V14.01,2013-01-25 18:02:00,
2013-01-25 12:04:00,37.6,36.3,30.17,NW,314,0.0,0.0,95,0.01,,---,0.10,VWS V14.01,2013-01-25 18:04:00,
2013-01-25 12:05:00,37.6,36.3,30.17,NW,314,0.0,0.0,95,0.01,,---,0.10,VWS V14.01,2013-01-25 18:05:00,
2013-01-25 12:06:00,37.7,36.4,30.16,NW,314,0.0,0.0,95,0.01,,---,0.10,VWS V14.01,2013-01-25 18:06:00,
2013-01-25 12:07:00,37.7,36.4,30.16,NW,314,0.0,0.0,95,0.01,,---,0.10,VWS V14.01,2013-01-25 18:07:00,
2013-01-25 12:09:00,37.7,36.4,30.16,NW,314,0.0,0.0,95,0.01,,---,0.10,VWS V14.01,2013-01-25 18:09:00,
2013-01-25 12:13:00,37.7,36.4,30.16,NW,314,0.0,0.0,95,0.01,,---,0.10,VWS V14.01,2013-01-25 18:13:00,
2013-01-25 12:14:00,37.7,36.4,30.16,NW,314,0.0,0.0,95,0.01,,---,0.10,VWS V14.01,2013-01-25 18:14:00,
2013-01-25 12:18:00,37.7,36.4,30.16,NW,314,0.0,0.0,95,0.01,,---,0.10,VWS V14.01,2013-01-25 18:18:00,
2013-01-25 12:19:00,37.6,36.3,30.16,NW,314,0.0,0.0,95,0.01,,---,0.10,VWS V14.01,2013-01-25 18:19:00,
2013-01-25 12:23:00,37.6,36.3,30.15,NW,314,0.0,0.0,95,0.01,,---,0.10,VWS V14.01,2013-01-25 18:23:00,
2013-01-25 12:25:00,37.6,36.3,30.15,NW,314,0.0,0.0,95,0.01,,---,0.10,VWS V14.01,2013-01-25 18:25:00,
2013-01-25 12:28:00,37.6,36.3,30.15,NW,314,0.0,0.0,95,0.01,,---,0.10,VWS V14.01,2013-01-25 18:28:00,
2013-01-25 12:29:00,37.6,36.3,30.15,NW,314,0.0,0.0,95,0.01,,---,0.10,VWS V14.01,2013-01-25 18:29:00,
2013-01-25 12:30:00,37.7,36.4,30.15,NW,314,0.0,0.0,95,0.01,,---,0.10,VWS V14.01,2013-01-25 18:30:00,
2013-01-25 12:33:00,37.8,36.5,30.15,NW,314,0.0,0.0,95,0.00,,---,0.10,VWS V14.01,2013-01-25 18:33:00,
2013-01-25 12:34:00,37.8,36.5,30.15,NW,314,0.0,0.0,95,0.00,,---,0.10,VWS V14.01,2013-01-25 18:34:00,
2013-01-25 12:35:00,37.9,36.6,30.15,NW,314,0.0,0.0,95,0.00,,---,0.10,VWS V14.01,2013-01-25 18:35:00,
2013-01-25 12:38:00,37.9,36.6,30.16,NW,314,0.0,0.0,95,0.00,,---,0.10,VWS V14.01,2013-01-25 18:38:00,
2013-01-25 12:39:00,37.9,36.6,30.16,NW,314,0.0,0.0,95,0.00,,---,0.10,VWS V14.01,2013-01-25 18:39:00,
2013-01-25 12:40:00,38.0,36.7,30.16,NW,314,0.0,0.0,95,0.01,,---,0.11,VWS V14.01,2013-01-25 18:40:00,
2013-01-25 12:43:00,38.1,36.8,30.15,NW,314,0.0,0.0,95,0.01,,---,0.11,VWS V14.01,2013-01-25 18:43:00,
2013-01-25 12:44:00,38.0,36.7,30.15,NW,314,0.0,0.0,95,0.01,,---,0.11,VWS V14.01,2013-01-25 18:44:00,
2013-01-25 12:46:00,38.3,37.3,30.15,NW,314,0.0,0.0,96,0.01,,---,0.11,VWS V14.01,2013-01-25 18:46:00,
2013-01-25 12:48:00,38.5,37.5,30.15,NW,314,0.0,0.0,96,0.01,,---,0.11,VWS V14.01,2013-01-25 18:48:00,
2013-01-25 12:49:00,38.5,37.5,30.15,NW,314,0.0,0.0,96,0.01,,---,0.11,VWS V14.01,2013-01-25 18:49:00,
2013-01-25 12:51:00,38.7,37.7,30.15,NW,314,0.0,0.0,96,0.01,,---,0.11,VWS V14.01,2013-01-25 18:51:00,
2013-01-25 12:53:00,38.9,37.9,30.15,NW,314,0.0,0.0,96,0.01,,---,0.11,VWS V14.01,2013-01-25 18:53:00,
2013-01-25 12:54:00,38.9,37.9,30.15,NW,314,0.0,0.0,96,0.01,,---,0.11,VWS V14.01,2013-01-25 18:54:00,
2013-01-25 12:56:00,39.1,38.1,30.15,NW,314,0.0,0.0,96,0.01,,---,0.11,VWS V14.01,2013-01-25 18:56:00,
2013-01-25 12:58:00,39.2,38.2,30.15,NW,314,0.0,0.0,96,0.01,,---,0.11,VWS V14.01,2013-01-25 18:58:00,
2013-01-25 12:59:00,39.3,38.3,30.15,NW,314,0.0,0.0,96,0.01,,---,0.11,VWS V14.01,2013-01-25 18:59:00,
2013-01-25 13:02:00,39.5,38.5,30.14,NW,314,0.0,0.0,96,0.01,,---,0.11,VWS V14.01,2013-01-25 19:02:00,
2013-01-25 13:04:00,39.6,38.6,30.15,NW,314,0.0,0.0,96,0.01,,---,0.11,VWS V14.01,2013-01-25 19:04:00,
2013-01-25 13:07:00,39.8,38.5,30.15,NW,323,0.0,1.0,95,0.01,,---,0.11,VWS V14.01,2013-01-25 19:07:00,
2013-01-25 13:09:00,39.9,38.6,30.15,NW,323,0.0,1.0,95,0.01,,---,0.11,VWS V14.01,2013-01-25 19:09:00,
2013-01-25 13:12:00,40.0,38.7,30.15,North,349,0.0,2.0,95,0.01,,---,0.11,VWS V14.01,2013-01-25 19:12:00,
2013-01-25 13:14:00,39.9,38.3,30.15,NNE,17,0.0,0.0,94,0.01,,---,0.11,VWS V14.01,2013-01-25 19:14:00,
2013-01-25 13:17:00,40.0,38.4,30.14,NNE,13,2.0,3.0,94,0.01,,---,0.11,VWS V14.01,2013-01-25 19:17:00,
2013-01-25 13:19:00,39.9,38.3,30.15,NNW,344,0.0,3.0,94,0.01,,---,0.11,VWS V14.01,2013-01-25 19:19:00,
2013-01-25 13:20:00,39.9,38.3,30.15,NNW,343,0.0,3.0,94,0.01,,---,0.11,VWS V14.01,2013-01-25 19:20:00,
2013-01-25 13:22:00,40.2,38.6,30.15,NNW,347,1.0,3.0,94,0.01,,---,0.11,VWS V14.01,2013-01-25 19:22:00,
2013-01-25 13:24:00,40.3,38.7,30.15,North,350,1.0,3.0,94,0.01,,---,0.11,VWS V14.01,2013-01-25 19:24:00,
2013-01-25 13:25:00,40.3,38.7,30.15,North,351,1.0,3.0,94,0.01,,---,0.11,VWS V14.01,2013-01-25 19:25:00,
2013-01-25 13:28:00,40.3,38.4,30.15,North,4,1.0,3.0,93,0.01,,---,0.11,VWS V14.01,2013-01-25 19:28:00,
2013-01-25 13:29:00,40.3,38.4,30.15,North,1,3.0,3.0,93,0.01,,---,0.11,VWS V14.01,2013-01-25 19:29:00,
2013-01-25 13:30:00,40.2,38.3,30.15,North,353,1.0,3.0,93,0.01,,---,0.11,VWS V14.01,2013-01-25 19:30:00,
2013-01-25 13:33:00,40.4,38.5,30.15,NW,312,0.0,0.0,93,0.01,,---,0.11,VWS V14.01,2013-01-25 19:33:00,
2013-01-25 13:34:00,40.5,38.6,30.15,NW,313,0.0,0.0,93,0.01,,---,0.11,VWS V14.01,2013-01-25 19:34:00,
2013-01-25 13:35:00,40.6,38.7,30.15,NW,313,0.0,0.0,93,0.01,,---,0.11,VWS V14.01,2013-01-25 19:35:00,
2013-01-25 13:38:00,40.5,38.4,30.15,NNE,13,0.0,3.0,92,0.01,,---,0.11,VWS V14.01,2013-01-25 19:38:00,
2013-01-25 13:39:00,40.5,38.4,30.15,North,6,2.0,3.0,92,0.01,,---,0.11,VWS V14.01,2013-01-25 19:39:00,
2013-01-25 13:40:00,40.5,38.4,30.15,NNW,342,2.0,3.0,92,0.01,,---,0.11,VWS V14.01,2013-01-25 19:40:00,
2013-01-25 13:43:00,40.6,38.2,30.15,North,355,0.0,3.0,91,0.01,,---,0.11,VWS V14.01,2013-01-25 19:43:00,
2013-01-25 13:44:00,40.7,38.3,30.15,North,354,1.0,3.0,91,0.01,,---,0.11,VWS V14.01,2013-01-25 19:44:00,
2013-01-25 13:45:00,40.7,38.3,30.15,North,354,0.0,3.0,91,0.01,,---,0.11,VWS V14.01,2013-01-25 19:45:00,
2013-01-25 13:49:00,40.9,38.5,30.15,North,354,0.0,4.0,91,0.00,,---,0.11,VWS V14.01,2013-01-25 19:49:00,
2013-01-25 13:50:00,40.9,38.5,30.14,NNE,19,1.0,4.0,91,0.00,,---,0.11,VWS V14.01,2013-01-25 19:50:00,
2013-01-25 13:54:00,41.0,38.3,30.14,North,350,0.0,4.0,90,0.00,,---,0.11,VWS V14.01,2013-01-25 19:54:00,
2013-01-25 13:55:00,41.1,38.4,30.15,North,350,1.0,4.0,90,0.00,,---,0.11,VWS V14.01,2013-01-25 19:55:00,
2013-01-25 13:59:00,41.3,38.6,30.14,NNW,335,0.0,4.0,90,0.00,,---,0.11,VWS V14.01,2013-01-25 19:59:00,
2013-01-25 14:00:00,41.4,38.7,30.14,NNE,20,3.0,4.0,90,0.00,,---,0.11,VWS V14.01,2013-01-25 20:00:00,
2013-01-25 14:04:00,41.3,38.3,30.14,North,350,1.0,3.0,89,0.00,,---,0.11,VWS V14.01,2013-01-25 20:04:00,
2013-01-25 14:05:00,41.4,38.4,30.14,North,350,1.0,3.0,89,0.00,,---,0.11,VWS V14.01,2013-01-25 20:05:00,
2013-01-25 14:09:00,41.4,38.1,30.15,North,349,1.0,3.0,88,0.00,,---,0.11,VWS V14.01,2013-01-25 20:09:00,
2013-01-25 14:10:00,41.4,38.1,30.15,NNW,346,1.0,3.0,88,0.00,,---,0.11,VWS V14.01,2013-01-25 20:10:00,
2013-01-25 14:14:00,41.6,38.3,30.15,NNE,28,1.0,3.0,88,0.00,,---,0.11,VWS V14.01,2013-01-25 20:14:00,
2013-01-25 14:16:00,41.6,38.3,30.15,NNE,28,1.0,3.0,88,0.00,,---,0.11,VWS V14.01,2013-01-25 20:16:00,
2013-01-25 14:19:00,41.8,38.5,30.15,North,10,2.0,2.0,88,0.00,,---,0.11,VWS V14.01,2013-01-25 20:19:00,
2013-01-25 14:21:00,41.9,38.3,30.15,NNW,336,0.0,3.0,87,0.00,,---,0.11,VWS V14.01,2013-01-25 20:21:00,
2013-01-25 14:24:00,42.0,38.4,30.15,NNE,17,1.0,3.0,87,0.00,,---,0.11,VWS V14.01,2013-01-25 20:24:00,
2013-01-25 14:26:00,41.9,38.3,30.15,NNE,15,1.0,3.0,87,0.00,,---,0.11,VWS V14.01,2013-01-25 20:26:00,
2013-01-25 14:29:00,41.9,38.3,30.15,NNE,20,1.0,4.0,87,0.00,,---,0.11,VWS V14.01,2013-01-25 20:29:00,
2013-01-25 14:31:00,41.9,38.3,30.15,North,357,1.0,1.0,87,0.00,,---,0.11,VWS V14.01,2013-01-25 20:31:00,
2013-01-25 14:35:00,41.8,38.2,30.15,North,352,0.0,1.0,87,0.00,,---,0.11,VWS V14.01,2013-01-25 20:35:00,
2013-01-25 14:36:00,41.8,38.2,30.15,NNW,348,0.0,1.0,87,0.00,,---,0.11,VWS V14.01,2013-01-25 20:36:00,
2013-01-25 14:40:00,41.7,37.8,30.15,North,360,1.0,4.0,86,0.00,,---,0.11,VWS V14.01,2013-01-25 20:40:00,
2013-01-25 14:41:00,41.6,37.7,30.15,North,356,1.0,4.0,86,0.00,,---,0.11,VWS V14.01,2013-01-25 20:41:00,
2013-01-25 14:42:00,41.5,37.6,30.15,NNW,345,2.0,4.0,86,0.00,,---,0.11,VWS V14.01,2013-01-25 20:42:00,
2013-01-25 14:45:00,41.4,37.5,30.15,NNW,344,1.0,4.0,86,0.00,,---,0.11,VWS V14.01,2013-01-25 20:45:00,
2013-01-25 14:47:00,41.4,37.5,30.15,North,8,0.0,1.0,86,0.00,,---,0.11,VWS V14.01,2013-01-25 20:47:00,
2013-01-25 14:50:00,41.4,37.8,30.15,North,352,1.0,2.0,87,0.00,,---,0.11,VWS V14.01,2013-01-25 20:50:00,
2013-01-25 14:52:00,41.4,37.5,30.15,NE,38,2.0,4.0,86,0.00,,---,0.11,VWS V14.01,2013-01-25 20:52:00,
2013-01-25 14:53:00,41.4,37.5,30.15,ENE,59,0.0,4.0,86,0.00,,---,0.11,VWS V14.01,2013-01-25 20:53:00,
2013-01-25 14:55:00,41.4,37.5,30.15,North,10,1.0,4.0,86,0.00,,---,0.11,VWS V14.01,2013-01-25 20:55:00,
2013-01-25 14:57:00,41.3,37.4,30.15,North,1,0.0,4.0,86,0.00,,---,0.11,VWS V14.01,2013-01-25 20:57:00,
2013-01-25 14:58:00,41.4,37.5,30.15,North,8,1.0,4.0,86,0.00,,---,0.11,VWS V14.01,2013-01-25 20:58:00,
2013-01-25 15:00:00,41.5,37.6,30.16,North,4,1.0,4.0,86,0.00,,---,0.11,VWS V14.01,2013-01-25 21:00:00,
2013-01-25 15:02:00,41.5,37.6,30.15,North,356,1.0,2.0,86,0.00,,---,0.11,VWS V14.01,2013-01-25 21:02:00,
2013-01-25 15:03:00,41.5,37.6,30.16,North,356,2.0,2.0,86,0.00,,---,0.11,VWS V14.01,2013-01-25 21:03:00,
2013-01-25 15:08:00,41.4,37.5,30.16,ENE,68,0.0,2.0,86,0.00,,---,0.11,VWS V14.01,2013-01-25 21:08:00,
2013-01-25 15:13:00,41.4,37.8,30.16,North,353,1.0,2.0,87,0.00,,---,0.11,VWS V14.01,2013-01-25 21:13:00,
2013-01-25 15:17:00,41.5,37.3,30.16,NNE,17,1.0,3.0,85,0.00,,---,0.11,VWS V14.01,2013-01-25 21:17:00,
2013-01-25 15:23:00,41.5,37.3,30.16,NNE,17,1.0,3.0,85,0.00,,---,0.11,VWS V14.01,2013-01-25 21:23:00,
2013-01-25 15:27:00,41.3,37.4,30.16,NNE,22,2.0,3.0,86,0.00,,---,0.11,VWS V14.01,2013-01-25 21:27:00,
2013-01-25 15:29:00,41.2,37.0,30.16,ENE,73,3.0,3.0,85,0.00,,---,0.11,VWS V14.01,2013-01-25 21:29:00,
2013-01-25 15:30:00,41.1,36.9,30.16,NW,325,1.0,3.0,85,0.00,,---,0.11,VWS V14.01,2013-01-25 21:30:00,
2013-01-25 15:32:00,41.1,37.2,30.17,East,84,1.0,4.0,86,0.00,,---,0.11,VWS V14.01,2013-01-25 21:32:00,
2013-01-25 15:34:00,41.1,37.2,30.17,North,1,2.0,4.0,86,0.00,,---,0.11,VWS V14.01,2013-01-25 21:34:00,
2013-01-25 15:35:00,41.1,36.9,30.17,North,1,1.0,4.0,85,0.00,,---,0.11,VWS V14.01,2013-01-25 21:35:00,
2013-01-25 15:45:00,40.9,37.0,30.17,NNE,24,1.0,4.0,86,0.00,,---,0.11,VWS V14.01,2013-01-25 21:45:00,
2013-01-25 15:46:00,41.0,37.1,30.16,North,6,1.0,4.0,86,0.00,,---,0.11,VWS V14.01,2013-01-25 21:46:00,
2013-01-25 15:47:00,41.0,37.1,30.17,North,3,1.0,4.0,86,0.00,,---,0.11,VWS V14.01,2013-01-25 21:47:00,
2013-01-25 15:52:00,41.0,37.0,30.16,ENE,60,1.0,5.0,85,0.00,,,0.11,weatherlink.com 1.10,2013-01-25 21:52:00,
2013-01-25 15:54:00,41.0,36.8,30.17,ENE,60,1.0,1.0,85,0.00,,---,0.11,VWS V14.01,2013-01-25 21:54:00,
2013-01-25 16:03:00,40.7,36.5,30.16,North,3,0.0,2.0,85,0.00,,---,0.11,VWS V14.01,2013-01-25 22:03:00,
2013-01-25 16:04:00,40.7,36.5,30.17,North,357,2.0,2.0,85,0.00,,---,0.11,VWS V14.01,2013-01-25 22:04:00,
2013-01-25 16:08:00,40.8,37.0,30.17,North,3,1.0,4.0,85,0.00,,,0.11,weatherlink.com 1.10,2013-01-25 22:08:00,
2013-01-25 16:09:00,40.7,36.5,30.16,NNE,13,1.0,2.0,85,0.00,,---,0.11,VWS V14.01,2013-01-25 22:09:00,
2013-01-25 16:10:00,40.8,36.7,30.17,NNW,346,2.0,2.0,85,0.00,,---,0.11,VWS V14.01,2013-01-25 22:10:00,
2013-01-25 16:17:00,40.7,36.5,30.17,NNW,339,0.0,2.0,85,0.00,,---,0.11,VWS V14.01,2013-01-25 22:17:00,
2013-01-25 16:21:00,40.8,36.9,30.17,North,353,0.0,2.0,86,0.00,,---,0.11,VWS V14.01,2013-01-25 22:21:00,
2013-01-25 16:22:00,40.9,37.0,30.17,ENE,60,0.0,2.0,86,0.00,,,0.11,weatherlink.com 1.10,2013-01-25 22:22:00,
2013-01-25 16:26:00,41.2,37.3,30.17,North,360,1.0,2.0,86,0.00,,---,0.11,VWS V14.01,2013-01-25 22:26:00,
2013-01-25 16:28:00,41.3,37.4,30.17,North,10,2.0,2.0,86,0.00,,---,0.11,VWS V14.01,2013-01-25 22:28:00,
2013-01-25 16:30:00,41.4,37.2,30.17,ENE,76,1.0,2.0,85,0.00,,---,0.11,VWS V14.01,2013-01-25 22:30:00,
2013-01-25 16:31:00,41.4,36.9,30.17,NNE,25,2.0,3.0,84,0.00,,---,0.11,VWS V14.01,2013-01-25 22:31:00,
2013-01-25 16:33:00,41.2,36.7,30.17,NNW,337,1.0,4.0,84,0.00,,---,0.11,VWS V14.01,2013-01-25 22:33:00,
2013-01-25 16:35:00,41.1,36.6,30.17,North,3,1.0,4.0,84,0.00,,---,0.11,VWS V14.01,2013-01-25 22:35:00,
2013-01-25 16:36:00,41.1,36.6,30.17,North,3,0.0,4.0,84,0.00,,---,0.11,VWS V14.01,2013-01-25 22:36:00,
2013-01-25 16:38:00,41.1,37.0,30.17,North,360,0.0,4.0,85,0.00,,,0.11,weatherlink.com 1.10,2013-01-25 22:38:00,
2013-01-25 16:40:00,41.1,36.9,30.17,North,360,0.0,4.0,85,0.00,,---,0.11,VWS V14.01,2013-01-25 22:40:00,
2013-01-25 16:42:00,41.1,36.9,30.17,North,360,0.0,4.0,85,0.00,,---,0.11,VWS V14.01,2013-01-25 22:42:00,
2013-01-25 16:44:00,41.1,36.9,30.17,North,352,1.0,4.0,85,0.00,,---,0.11,VWS V14.01,2013-01-25 22:44:00,
2013-01-25 16:45:00,41.1,36.9,30.17,North,352,1.0,4.0,85,0.00,,---,0.11,VWS V14.01,2013-01-25 22:45:00,
2013-01-25 16:47:00,41.0,36.8,30.17,North,357,2.0,2.0,85,0.00,,---,0.11,VWS V14.01,2013-01-25 22:47:00,
2013-01-25 16:49:00,40.9,36.8,30.17,North,10,2.0,2.0,85,0.00,,---,0.11,VWS V14.01,2013-01-25 22:49:00,
2013-01-25 16:50:00,40.9,36.5,30.17,ENE,75,1.0,3.0,84,0.00,,---,0.11,VWS V14.01,2013-01-25 22:50:00,
2013-01-25 16:52:00,40.8,36.3,30.18,NE,38,1.0,3.0,84,0.00,,---,0.11,VWS V14.01,2013-01-25 22:52:00,
2013-01-25 16:54:00,40.7,36.2,30.17,NE,47,2.0,3.0,84,0.00,,---,0.11,VWS V14.01,2013-01-25 22:54:00,
2013-01-25 16:55:00,40.6,36.2,30.17,NE,37,1.0,3.0,84,0.00,,---,0.11,VWS V14.01,2013-01-25 22:55:00,
2013-01-25 16:57:00,40.5,36.0,30.18,NNE,20,1.0,3.0,84,0.00,,---,0.11,VWS V14.01,2013-01-25 22:57:00,
2013-01-25 16:59:00,40.4,36.3,30.17,ENE,69,1.0,4.0,85,0.00,,---,0.11,VWS V14.01,2013-01-25 22:59:00,
2013-01-25 17:00:00,40.4,36.3,30.17,East,90,2.0,4.0,85,0.00,,---,0.11,VWS V14.01,2013-01-25 23:00:00,
2013-01-25 17:02:00,40.4,36.3,30.18,ENE,73,0.0,1.0,85,0.00,,---,0.11,VWS V14.01,2013-01-25 23:02:00,
2013-01-25 17:04:00,40.3,36.2,30.18,NW,322,0.0,1.0,85,0.00,,---,0.11,VWS V14.01,2013-01-25 23:04:00,
2013-01-25 17:05:00,40.3,36.2,30.18,ENE,63,0.0,1.0,85,0.00,,---,0.11,VWS V14.01,2013-01-25 23:05:00,
2013-01-25 17:07:00,40.3,36.5,30.18,ENE,63,0.0,1.0,86,0.00,,---,0.11,VWS V14.01,2013-01-25 23:07:00,
2013-01-25 17:09:00,40.2,36.1,30.18,ENE,77,1.0,2.0,85,0.00,,---,0.11,VWS V14.01,2013-01-25 23:09:00,
2013-01-25 17:10:00,40.2,36.3,30.18,ENE,67,1.0,4.0,86,0.00,,---,0.11,VWS V14.01,2013-01-25 23:10:00,
2013-01-25 17:12:00,40.2,36.3,30.18,East,83,1.0,4.0,86,0.00,,---,0.11,VWS V14.01,2013-01-25 23:12:00,
2013-01-25 17:14:00,40.1,36.3,30.18,NNW,347,0.0,4.0,86,0.00,,---,0.11,VWS V14.01,2013-01-25 23:14:00,
2013-01-25 17:15:00,40.1,36.3,30.18,NNW,348,0.0,4.0,86,0.00,,---,0.11,VWS V14.01,2013-01-25 23:15:00,
2013-01-25 17:16:00,40.1,36.3,30.18,NNW,348,0.0,4.0,86,0.00,,---,0.11,VWS V14.01,2013-01-25 23:16:00,
2013-01-25 17:17:00,40.0,36.2,30.18,NNW,348,0.0,0.0,86,0.00,,---,0.11,VWS V14.01,2013-01-25 23:17:00,
2013-01-25 17:19:00,40.0,36.2,30.17,NNE,13,1.0,2.0,86,0.00,,---,0.11,VWS V14.01,2013-01-25 23:19:00,
2013-01-25 17:20:00,40.0,36.2,30.18,NNW,347,0.0,2.0,86,0.00,,---,0.11,VWS V14.01,2013-01-25 23:20:00,
2013-01-25 17:21:00,40.0,36.2,30.18,NNW,347,0.0,2.0,86,0.00,,---,0.11,VWS V14.01,2013-01-25 23:21:00,
2013-01-25 17:22:00,40.0,36.2,30.18,NNW,347,0.0,2.0,86,0.00,,---,0.11,VWS V14.01,2013-01-25 23:22:00,
2013-01-25 17:24:00,40.0,36.5,30.18,NNW,342,0.0,2.0,87,0.00,,---,0.11,VWS V14.01,2013-01-25 23:24:00,
2013-01-25 17:25:00,39.9,36.3,30.18,NNW,328,0.0,2.0,87,0.00,,---,0.11,VWS V14.01,2013-01-25 23:25:00,
2013-01-25 17:26:00,39.9,36.3,30.18,NNW,328,0.0,2.0,87,0.00,,---,0.11,VWS V14.01,2013-01-25 23:26:00,
2013-01-25 17:27:00,39.9,36.1,30.18,NNW,328,0.0,2.0,86,0.00,,---,0.11,VWS V14.01,2013-01-25 23:27:00,
2013-01-25 17:29:00,39.9,36.3,30.18,NNW,328,0.0,2.0,87,0.00,,---,0.11,VWS V14.01,2013-01-25 23:29:00,
2013-01-25 17:30:00,39.9,36.3,30.18,NNW,328,0.0,2.0,87,0.00,,---,0.11,VWS V14.01,2013-01-25 23:30:00,
2013-01-25 17:31:00,39.9,36.3,30.18,NNW,328,0.0,0.0,87,0.00,,---,0.11,VWS V14.01,2013-01-25 23:31:00,
2013-01-25 17:32:00,39.8,36.0,30.18,NNW,328,0.0,0.0,86,0.00,,---,0.11,VWS V14.01,2013-01-25 23:32:00,
2013-01-25 17:34:00,39.8,36.2,30.18,NNW,328,0.0,0.0,87,0.00,,---,0.11,VWS V14.01,2013-01-25 23:34:00,
2013-01-25 17:35:00,39.8,36.2,30.18,North,11,0.0,1.0,87,0.00,,---,0.11,VWS V14.01,2013-01-25 23:35:00,
2013-01-25 17:36:00,39.8,36.2,30.18,NNE,13,0.0,1.0,87,0.00,,---,0.11,VWS V14.01,2013-01-25 23:36:00,
2013-01-25 17:37:00,39.8,36.2,30.18,NNE,25,0.0,1.0,87,0.00,,---,0.11,VWS V14.01,2013-01-25 23:37:00,
2013-01-25 17:39:00,39.7,36.2,30.18,NNE,24,0.0,1.0,87,0.00,,---,0.11,VWS V14.01,2013-01-25 23:39:00,
2013-01-25 17:40:00,39.7,36.2,30.18,NNE,22,0.0,1.0,87,0.00,,---,0.11,VWS V14.01,2013-01-25 23:40:00,
2013-01-25 17:41:00,39.7,36.2,30.18,NNE,24,0.0,1.0,87,0.00,,---,0.11,VWS V14.01,2013-01-25 23:41:00,
2013-01-25 17:42:00,39.7,36.2,30.18,NNE,24,2.0,2.0,87,0.00,,---,0.11,VWS V14.01,2013-01-25 23:42:00,
2013-01-25 17:44:00,39.7,36.2,30.18,East,92,0.0,3.0,87,0.00,,---,0.11,VWS V14.01,2013-01-25 23:44:00,
2013-01-25 17:46:00,39.7,36.2,30.19,North,11,0.0,1.0,87,0.00,,---,0.11,VWS V14.01,2013-01-25 23:46:00,
2013-01-25 17:47:00,39.7,36.2,30.19,East,89,1.0,3.0,87,0.00,,---,0.11,VWS V14.01,2013-01-25 23:47:00,
2013-01-25 17:49:00,39.7,36.2,30.19,NNE,13,0.0,3.0,87,0.00,,---,0.11,VWS V14.01,2013-01-25 23:49:00,
2013-01-25 17:51:00,39.7,36.2,30.19,North,352,0.0,3.0,87,0.00,,---,0.11,VWS V14.01,2013-01-25 23:51:00,
2013-01-25 17:52:00,39.6,36.1,30.19,East,79,2.0,3.0,87,0.00,,---,0.11,VWS V14.01,2013-01-25 23:52:00,
2013-01-25 17:53:00,39.6,36.1,30.19,ENE,78,1.0,3.0,87,0.00,,---,0.11,VWS V14.01,2013-01-25 23:53:00,
2013-01-25 17:55:00,39.6,36.1,30.19,ENE,70,0.0,3.0,87,0.00,,---,0.11,VWS V14.01,2013-01-25 23:55:00,
2013-01-25 17:56:00,39.6,36.1,30.19,East,80,1.0,3.0,87,0.00,,---,0.11,VWS V14.01,2013-01-25 23:56:00,
2013-01-25 17:57:00,39.6,36.1,30.19,East,80,0.0,3.0,87,0.00,,---,0.11,VWS V14.01,2013-01-25 23:57:00,
2013-01-25 17:58:00,39.6,36.1,30.19,East,80,1.0,3.0,87,0.00,,---,0.11,VWS V14.01,2013-01-25 23:58:00,
2013-01-25 18:00:00,39.6,36.1,30.19,East,80,0.0,3.0,87,0.00,,---,0.11,VWS V14.01,2013-01-26 00:00:00,
2013-01-25 18:01:00,39.5,36.0,30.19,East,80,0.0,0.0,87,0.00,,---,0.11,VWS V14.01,2013-01-26 00:01:00,
2013-01-25 18:02:00,39.5,36.0,30.19,North,360,2.0,2.0,87,0.00,,---,0.11,VWS V14.01,2013-01-26 00:02:00,
2013-01-25 18:03:00,39.5,36.0,30.19,North,354,0.0,2.0,87,0.00,,---,0.11,VWS V14.01,2013-01-26 00:03:00,
2013-01-25 18:05:00,39.5,36.0,30.19,North,354,0.0,2.0,87,0.00,,---,0.11,VWS V14.01,2013-01-26 00:05:00,
2013-01-25 18:06:00,39.5,36.0,30.20,North,354,0.0,2.0,87,0.00,,---,0.11,VWS V14.01,2013-01-26 00:06:00,
2013-01-25 18:07:00,39.4,35.9,30.20,North,354,0.0,2.0,87,0.00,,---,0.11,VWS V14.01,2013-01-26 00:07:00,
2013-01-25 18:08:00,39.4,35.9,30.19,NNE,22,1.0,2.0,87,0.00,,---,0.11,VWS V14.01,2013-01-26 00:08:00,
2013-01-25 18:10:00,39.4,35.9,30.20,East,98,1.0,3.0,87,0.00,,---,0.11,VWS V14.01,2013-01-26 00:10:00,
2013-01-25 18:11:00,39.4,35.9,30.20,East,98,0.0,3.0,87,0.00,,---,0.11,VWS V14.01,2013-01-26 00:11:00,
2013-01-25 18:12:00,39.3,35.8,30.20,East,98,1.0,3.0,87,0.00,,---,0.11,VWS V14.01,2013-01-26 00:12:00,
2013-01-25 18:13:00,39.3,35.8,30.20,East,95,2.0,3.0,87,0.00,,---,0.11,VWS V14.01,2013-01-26 00:13:00,
2013-01-25 18:15:00,39.3,35.8,30.20,East,89,0.0,4.0,87,0.00,,---,0.11,VWS V14.01,2013-01-26 00:15:00,
2013-01-25 18:16:00,39.3,35.8,30.20,East,89,0.0,0.0,87,0.00,,---,0.11,VWS V14.01,2013-01-26 00:16:00,
2013-01-25 18:17:00,39.2,35.7,30.20,East,89,1.0,1.0,87,0.00,,---,0.11,VWS V14.01,2013-01-26 00:17:00,
2013-01-25 18:18:00,39.2,35.7,30.20,East,83,0.0,1.0,87,0.00,,---,0.11,VWS V14.01,2013-01-26 00:18:00,
2013-01-25 18:20:00,39.2,35.7,30.20,East,83,0.0,1.0,87,0.00,,---,0.11,VWS V14.01,2013-01-26 00:20:00,
2013-01-25 18:21:00,39.1,35.6,30.20,East,80,1.0,1.0,87,0.00,,---,0.11,VWS V14.01,2013-01-26 00:21:00,
2013-01-25 18:22:00,39.1,35.6,30.20,ENE,66,1.0,1.0,87,0.00,,---,0.11,VWS V14.01,2013-01-26 00:22:00,
2013-01-25 18:23:00,39.1,35.6,30.20,ENE,65,0.0,1.0,87,0.00,,---,0.11,VWS V14.01,2013-01-26 00:23:00,
2013-01-25 18:25:00,39.1,35.6,30.20,ENE,65,0.0,1.0,87,0.00,,---,0.11,VWS V14.01,2013-01-26 00:25:00,
2013-01-25 18:27:00,39.0,35.5,30.20,ENE,62,0.0,1.0,87,0.00,,---,0.11,VWS V14.01,2013-01-26 00:27:00,
2013-01-25 18:28:00,39.0,35.8,30.21,North,6,0.0,1.0,88,0.00,,---,0.11,VWS V14.01,2013-01-26 00:28:00,
2013-01-25 18:30:00,38.9,35.7,30.21,North,6,0.0,1.0,88,0.00,,---,0.11,VWS V14.01,2013-01-26 00:30:00,
2013-01-25 18:32:00,38.9,35.7,30.21,North,4,0.0,0.0,88,0.00,,---,0.11,VWS V14.01,2013-01-26 00:32:00,
2013-01-25 18:33:00,38.8,35.6,30.21,North,4,0.0,2.0,88,0.00,,---,0.11,VWS V14.01,2013-01-26 00:33:00,
2013-01-25 18:35:00,38.8,35.6,30.21,East,87,1.0,2.0,88,0.00,,---,0.11,VWS V14.01,2013-01-26 00:35:00,
2013-01-25 18:37:00,38.8,35.6,30.21,East,86,0.0,2.0,88,0.00,,---,0.11,VWS V14.01,2013-01-26 00:37:00,
2013-01-25 18:39:00,38.8,35.6,30.21,NNE,32,2.0,3.0,88,0.00,,---,0.11,VWS V14.01,2013-01-26 00:39:00,
2013-01-25 18:40:00,38.8,35.6,30.21,NNE,29,0.0,3.0,88,0.00,,---,0.11,VWS V14.01,2013-01-26 00:40:00,
2013-01-25 18:42:00,38.8,35.6,30.21,NNE,28,0.0,3.0,88,0.00,,---,0.11,VWS V14.01,2013-01-26 00:42:00,
2013-01-25 18:43:00,38.8,35.6,30.21,NNE,28,0.0,3.0,88,0.00,,---,0.11,VWS V14.01,2013-01-26 00:43:00,
2013-01-25 18:44:00,38.7,35.5,30.21,NNE,28,0.0,3.0,88,0.00,,---,0.11,VWS V14.01,2013-01-26 00:44:00,
2013-01-25 18:46:00,38.7,35.5,30.21,NE,34,0.0,3.0,88,0.00,,---,0.11,VWS V14.01,2013-01-26 00:46:00,
2013-01-25 18:47:00,38.7,35.5,30.21,NE,34,0.0,0.0,88,0.00,,---,0.11,VWS V14.01,2013-01-26 00:47:00,
2013-01-25 18:48:00,38.6,35.4,30.21,NE,34,0.0,0.0,88,0.00,,---,0.11,VWS V14.01,2013-01-26 00:48:00,
2013-01-25 18:49:00,38.6,35.4,30.21,NE,34,0.0,0.0,88,0.00,,---,0.11,VWS V14.01,2013-01-26 00:49:00,
2013-01-25 18:51:00,38.5,35.3,30.21,NNE,32,0.0,1.0,88,0.00,,---,0.11,VWS V14.01,2013-01-26 00:51:00,
2013-01-25 18:52:00,38.5,35.3,30.21,NNE,32,0.0,1.0,88,0.00,,---,0.11,VWS V14.01,2013-01-26 00:52:00,
2013-01-25 18:53:00,38.5,35.3,30.21,NNE,29,0.0,1.0,88,0.00,,---,0.11,VWS V14.01,2013-01-26 00:53:00,
2013-01-25 18:54:00,38.5,35.3,30.21,North,8,0.0,1.0,88,0.00,,---,0.11,VWS V14.01,2013-01-26 00:54:00,
2013-01-25 18:56:00,38.4,35.2,30.21,North,352,0.0,1.0,88,0.00,,---,0.11,VWS V14.01,2013-01-26 00:56:00,
2013-01-25 18:58:00,38.4,35.2,30.21,North,352,0.0,1.0,88,0.00,,---,0.11,VWS V14.01,2013-01-26 00:58:00,
2013-01-25 18:59:00,38.4,35.2,30.21,North,352,0.0,1.0,88,0.00,,---,0.11,VWS V14.01,2013-01-26 00:59:00,
2013-01-25 19:01:00,38.3,35.3,30.21,North,352,0.0,0.0,89,0.00,,---,0.11,VWS V14.01,2013-01-26 01:01:00,
2013-01-25 19:03:00,38.3,35.3,30.21,North,352,0.0,0.0,89,0.00,,---,0.11,VWS V14.01,2013-01-26 01:03:00,
2013-01-25 19:04:00,38.3,35.3,30.20,North,352,0.0,0.0,89,0.00,,---,0.11,VWS V14.01,2013-01-26 01:04:00,
2013-01-25 19:06:00,38.2,35.2,30.20,North,352,0.0,0.0,89,0.00,,---,0.11,VWS V14.01,2013-01-26 01:06:00,
2013-01-25 19:08:00,38.1,35.2,30.21,North,352,0.0,0.0,89,0.00,,---,0.11,VWS V14.01,2013-01-26 01:08:00,
2013-01-25 19:09:00,38.1,35.2,30.21,North,352,0.0,0.0,89,0.00,,---,0.11,VWS V14.01,2013-01-26 01:09:00,
2013-01-25 19:11:00,38.1,35.2,30.21,North,352,0.0,0.0,89,0.00,,---,0.11,VWS V14.01,2013-01-26 01:11:00,
2013-01-25 19:13:00,38.0,35.0,30.21,North,352,0.0,0.0,89,0.00,,---,0.11,VWS V14.01,2013-01-26 01:13:00,
2013-01-25 19:14:00,38.0,35.0,30.21,North,352,0.0,0.0,89,0.00,,---,0.11,VWS V14.01,2013-01-26 01:14:00,
2013-01-25 19:16:00,38.0,35.0,30.21,North,352,0.0,0.0,89,0.00,,---,0.11,VWS V14.01,2013-01-26 01:16:00,
2013-01-25 19:18:00,38.0,35.0,30.20,North,352,0.0,0.0,89,0.00,,---,0.11,VWS V14.01,2013-01-26 01:18:00,
2013-01-25 19:19:00,38.0,35.0,30.20,North,352,0.0,0.0,89,0.00,,---,0.11,VWS V14.01,2013-01-26 01:19:00,
2013-01-25 19:21:00,37.9,35.2,30.20,North,352,0.0,0.0,90,0.00,,---,0.11,VWS V14.01,2013-01-26 01:21:00,
2013-01-25 19:23:00,37.9,35.2,30.21,North,352,0.0,0.0,90,0.00,,---,0.11,VWS V14.01,2013-01-26 01:23:00,
2013-01-25 19:25:00,37.9,35.2,30.20,North,352,0.0,0.0,90,0.00,,---,0.11,VWS V14.01,2013-01-26 01:25:00,
2013-01-25 19:26:00,37.9,35.2,30.21,North,352,0.0,0.0,90,0.00,,---,0.11,VWS V14.01,2013-01-26 01:26:00,
2013-01-25 19:28:00,37.9,35.2,30.21,North,352,0.0,0.0,90,0.00,,---,0.11,VWS V14.01,2013-01-26 01:28:00,
2013-01-25 19:30:00,37.9,35.2,30.21,North,352,0.0,0.0,90,0.00,,---,0.11,VWS V14.01,2013-01-26 01:30:00,
2013-01-25 19:31:00,37.9,35.2,30.21,North,352,0.0,0.0,90,0.00,,---,0.11,VWS V14.01,2013-01-26 01:31:00,
2013-01-25 19:33:00,37.9,35.2,30.21,North,352,0.0,0.0,90,0.00,,---,0.11,VWS V14.01,2013-01-26 01:33:00,
2013-01-25 19:34:00,37.8,35.1,30.21,North,352,0.0,0.0,90,0.00,,---,0.11,VWS V14.01,2013-01-26 01:34:00,
2013-01-25 19:35:00,37.8,35.1,30.21,North,352,0.0,0.0,90,0.00,,---,0.11,VWS V14.01,2013-01-26 01:35:00,
2013-01-25 19:36:00,37.8,35.1,30.21,North,352,0.0,0.0,90,0.00,,---,0.11,VWS V14.01,2013-01-26 01:36:00,
2013-01-25 19:39:00,37.7,35.0,30.21,North,352,0.0,0.0,90,0.00,,---,0.11,VWS V14.01,2013-01-26 01:39:00,
2013-01-25 19:40:00,37.7,35.0,30.21,North,352,0.0,0.0,90,0.00,,---,0.11,VWS V14.01,2013-01-26 01:40:00,
2013-01-25 19:42:00,37.7,35.0,30.21,North,352,0.0,0.0,90,0.00,,---,0.11,VWS V14.01,2013-01-26 01:42:00,
2013-01-25 19:44:00,37.7,35.0,30.21,North,352,0.0,0.0,90,0.00,,---,0.11,VWS V14.01,2013-01-26 01:44:00,
2013-01-25 19:45:00,37.6,34.9,30.21,North,352,0.0,0.0,90,0.00,,---,0.11,VWS V14.01,2013-01-26 01:45:00,
2013-01-25 19:47:00,37.6,34.9,30.22,North,352,0.0,0.0,90,0.00,,---,0.11,VWS V14.01,2013-01-26 01:47:00,
2013-01-25 19:49:00,37.5,34.8,30.22,North,352,0.0,0.0,90,0.00,,---,0.11,VWS V14.01,2013-01-26 01:49:00,
2013-01-25 19:51:00,37.4,34.7,30.22,North,352,0.0,0.0,90,0.00,,---,0.11,VWS V14.01,2013-01-26 01:51:00,
2013-01-25 19:52:00,37.3,34.6,30.22,North,352,0.0,0.0,90,0.00,,---,0.11,VWS V14.01,2013-01-26 01:52:00,
2013-01-25 19:54:00,37.2,34.5,30.22,North,352,0.0,0.0,90,0.00,,---,0.11,VWS V14.01,2013-01-26 01:54:00,
2013-01-25 19:56:00,37.1,34.4,30.22,North,352,0.0,0.0,90,0.00,,---,0.11,VWS V14.01,2013-01-26 01:56:00,
2013-01-25 19:57:00,37.1,34.4,30.22,North,352,0.0,0.0,90,0.00,,---,0.11,VWS V14.01,2013-01-26 01:57:00,
2013-01-25 19:59:00,37.1,34.4,30.22,North,352,0.0,0.0,90,0.00,,---,0.11,VWS V14.01,2013-01-26 01:59:00,
2013-01-25 20:01:00,36.9,34.2,30.21,North,352,0.0,0.0,90,0.00,,---,0.11,VWS V14.01,2013-01-26 02:01:00,
2013-01-25 20:02:00,36.9,34.5,30.21,North,352,0.0,0.0,91,0.00,,---,0.11,VWS V14.01,2013-01-26 02:02:00,
2013-01-25 20:04:00,36.8,34.4,30.21,North,352,0.0,0.0,91,0.00,,---,0.11,VWS V14.01,2013-01-26 02:04:00,
2013-01-25 20:06:00,36.8,34.4,30.21,North,352,0.0,0.0,91,0.00,,---,0.11,VWS V14.01,2013-01-26 02:06:00,
2013-01-25 20:07:00,36.8,34.4,30.21,North,352,0.0,0.0,91,0.00,,---,0.11,VWS V14.01,2013-01-26 02:07:00,
2013-01-25 20:09:00,36.7,34.3,30.21,North,352,0.0,0.0,91,0.00,,---,0.11,VWS V14.01,2013-01-26 02:09:00,
2013-01-25 20:11:00,36.7,34.3,30.21,North,352,0.0,0.0,91,0.00,,---,0.11,VWS V14.01,2013-01-26 02:11:00,
2013-01-25 20:12:00,36.7,34.3,30.21,North,352,0.0,0.0,91,0.00,,---,0.11,VWS V14.01,2013-01-26 02:12:00,
2013-01-25 20:14:00,36.7,34.6,30.21,North,352,0.0,0.0,92,0.00,,---,0.11,VWS V14.01,2013-01-26 02:14:00,
2013-01-25 20:16:00,36.7,34.6,30.22,North,352,0.0,0.0,92,0.00,,---,0.11,VWS V14.01,2013-01-26 02:16:00,
2013-01-25 20:17:00,36.6,34.5,30.22,North,352,0.0,0.0,92,0.00,,---,0.11,VWS V14.01,2013-01-26 02:17:00,
2013-01-25 20:19:00,36.5,34.4,30.22,North,352,0.0,0.0,92,0.00,,---,0.11,VWS V14.01,2013-01-26 02:19:00,
2013-01-25 20:21:00,36.5,34.4,30.22,North,352,0.0,0.0,92,0.00,,---,0.11,VWS V14.01,2013-01-26 02:21:00,
2013-01-25 20:22:00,36.5,34.4,30.22,North,352,0.0,0.0,92,0.00,,---,0.11,VWS V14.01,2013-01-26 02:22:00,
2013-01-25 20:24:00,36.4,34.3,30.22,North,352,0.0,0.0,92,0.00,,---,0.11,VWS V14.01,2013-01-26 02:24:00,
2013-01-25 20:26:00,36.4,34.3,30.22,North,352,0.0,0.0,92,0.00,,---,0.11,VWS V14.01,2013-01-26 02:26:00,
2013-01-25 20:27:00,36.4,34.3,30.22,North,352,0.0,0.0,92,0.00,,---,0.11,VWS V14.01,2013-01-26 02:27:00,
2013-01-25 20:29:00,36.4,34.3,30.22,North,352,0.0,0.0,92,0.00,,---,0.11,VWS V14.01,2013-01-26 02:29:00,
2013-01-25 20:30:00,36.4,34.3,30.22,North,352,0.0,0.0,92,0.00,,---,0.11,VWS V14.01,2013-01-26 02:30:00,
2013-01-25 20:31:00,36.3,34.2,30.22,North,352,0.0,0.0,92,0.00,,---,0.11,VWS V14.01,2013-01-26 02:31:00,
2013-01-25 20:33:00,36.3,34.2,30.22,North,352,0.0,0.0,92,0.00,,---,0.11,VWS V14.01,2013-01-26 02:33:00,
2013-01-25 20:34:00,36.2,34.1,30.22,North,352,0.0,0.0,92,0.00,,---,0.11,VWS V14.01,2013-01-26 02:34:00,
2013-01-25 20:35:00,36.2,34.1,30.22,North,352,0.0,0.0,92,0.00,,---,0.11,VWS V14.01,2013-01-26 02:35:00,
2013-01-25 20:36:00,36.2,34.1,30.22,North,352,0.0,0.0,92,0.00,,---,0.11,VWS V14.01,2013-01-26 02:36:00,
2013-01-25 20:38:00,36.1,34.0,30.22,North,352,0.0,0.0,92,0.00,,---,0.11,VWS V14.01,2013-01-26 02:38:00,
2013-01-25 20:39:00,36.1,34.0,30.22,North,352,0.0,0.0,92,0.00,,---,0.11,VWS V14.01,2013-01-26 02:39:00,
2013-01-25 20:40:00,36.1,34.0,30.22,North,352,0.0,0.0,92,0.00,,---,0.11,VWS V14.01,2013-01-26 02:40:00,
2013-01-25 20:41:00,36.1,34.0,30.22,North,352,0.0,0.0,92,0.00,,---,0.11,VWS V14.01,2013-01-26 02:41:00,
2013-01-25 20:43:00,36.0,34.2,30.22,North,352,0.0,0.0,93,0.00,,---,0.11,VWS V14.01,2013-01-26 02:43:00,
2013-01-25 20:44:00,36.0,34.2,30.22,North,352,0.0,0.0,93,0.00,,---,0.11,VWS V14.01,2013-01-26 02:44:00,
2013-01-25 20:45:00,36.0,34.2,30.22,North,352,0.0,0.0,93,0.00,,---,0.11,VWS V14.01,2013-01-26 02:45:00,
2013-01-25 20:46:00,36.0,34.2,30.22,North,352,0.0,0.0,93,0.00,,---,0.11,VWS V14.01,2013-01-26 02:46:00,
2013-01-25 20:48:00,35.9,34.1,30.22,North,352,0.0,0.0,93,0.00,,---,0.11,VWS V14.01,2013-01-26 02:48:00,
2013-01-25 20:49:00,35.9,34.1,30.22,North,352,0.0,0.0,93,0.00,,---,0.11,VWS V14.01,2013-01-26 02:49:00,
2013-01-25 20:50:00,35.9,34.1,30.21,North,352,0.0,0.0,93,0.00,,---,0.11,VWS V14.01,2013-01-26 02:50:00,
2013-01-25 20:51:00,35.8,34.0,30.21,North,352,0.0,0.0,93,0.00,,---,0.11,VWS V14.01,2013-01-26 02:51:00,
2013-01-25 20:54:00,35.8,34.0,30.21,North,352,0.0,0.0,93,0.00,,---,0.11,VWS V14.01,2013-01-26 02:54:00,
2013-01-25 20:55:00,35.8,34.0,30.21,North,352,0.0,0.0,93,0.00,,---,0.11,VWS V14.01,2013-01-26 02:55:00,
2013-01-25 20:56:00,35.7,33.9,30.21,North,352,0.0,0.0,93,0.00,,---,0.11,VWS V14.01,2013-01-26 02:56:00,
2013-01-25 20:59:00,35.7,33.9,30.21,North,352,0.0,0.0,93,0.00,,---,0.11,VWS V14.01,2013-01-26 02:59:00,
2013-01-25 21:00:00,35.7,33.9,30.21,North,352,0.0,0.0,93,0.00,,---,0.11,VWS V14.01,2013-01-26 03:00:00,
2013-01-25 21:01:00,35.7,33.9,30.21,North,352,0.0,0.0,93,0.00,,---,0.11,VWS V14.01,2013-01-26 03:01:00,
2013-01-25 21:04:00,35.6,33.8,30.21,North,352,0.0,0.0,93,0.00,,---,0.11,VWS V14.01,2013-01-26 03:04:00,
2013-01-25 21:05:00,35.6,33.8,30.21,North,352,0.0,0.0,93,0.00,,---,0.11,VWS V14.01,2013-01-26 03:05:00,
2013-01-25 21:06:00,35.6,33.8,30.21,North,352,0.0,0.0,93,0.00,,---,0.11,VWS V14.01,2013-01-26 03:06:00,
2013-01-25 21:09:00,35.6,33.8,30.21,North,352,0.0,0.0,93,0.00,,---,0.11,VWS V14.01,2013-01-26 03:09:00,
2013-01-25 21:10:00,35.6,33.8,30.21,North,352,0.0,0.0,93,0.00,,---,0.11,VWS V14.01,2013-01-26 03:10:00,
2013-01-25 21:11:00,35.6,33.8,30.21,North,352,0.0,0.0,93,0.00,,---,0.11,VWS V14.01,2013-01-26 03:11:00,
2013-01-25 21:14:00,35.5,33.7,30.21,North,352,0.0,0.0,93,0.00,,---,0.11,VWS V14.01,2013-01-26 03:14:00,
2013-01-25 21:15:00,35.6,34.0,30.21,North,352,0.0,0.0,94,0.00,,---,0.11,VWS V14.01,2013-01-26 03:15:00,
2013-01-25 21:16:00,35.5,34.0,30.21,North,352,0.0,0.0,94,0.00,,---,0.11,VWS V14.01,2013-01-26 03:16:00,
2013-01-25 21:19:00,35.5,34.0,30.21,North,352,0.0,0.0,94,0.00,,---,0.11,VWS V14.01,2013-01-26 03:19:00,
2013-01-25 21:20:00,35.5,34.0,30.21,North,352,0.0,0.0,94,0.00,,---,0.11,VWS V14.01,2013-01-26 03:20:00,
2013-01-25 21:21:00,35.5,34.0,30.21,North,352,0.0,0.0,94,0.00,,---,0.11,VWS V14.01,2013-01-26 03:21:00,
2013-01-25 21:22:00,35.5,34.0,30.21,North,352,0.0,0.0,94,0.00,,---,0.11,VWS V14.01,2013-01-26 03:22:00,
2013-01-25 21:24:00,35.5,34.0,30.21,North,352,0.0,0.0,94,0.00,,---,0.11,VWS V14.01,2013-01-26 03:24:00,
2013-01-25 21:25:00,35.5,34.0,30.21,North,352,0.0,0.0,94,0.00,,---,0.11,VWS V14.01,2013-01-26 03:25:00,
2013-01-25 21:27:00,35.5,34.0,30.21,North,352,0.0,0.0,94,0.00,,---,0.11,VWS V14.01,2013-01-26 03:27:00,
2013-01-25 21:29:00,35.6,34.0,30.22,North,352,0.0,0.0,94,0.00,,---,0.11,VWS V14.01,2013-01-26 03:29:00,
2013-01-25 21:30:00,35.6,34.0,30.22,North,352,0.0,0.0,94,0.00,,---,0.11,VWS V14.01,2013-01-26 03:30:00,
2013-01-25 21:32:00,35.6,34.0,30.22,North,352,0.0,0.0,94,0.00,,---,0.11,VWS V14.01,2013-01-26 03:32:00,
2013-01-25 21:34:00,35.6,34.0,30.22,North,352,0.0,0.0,94,0.00,,---,0.11,VWS V14.01,2013-01-26 03:34:00,
2013-01-25 21:35:00,35.5,34.0,30.22,North,352,0.0,0.0,94,0.00,,---,0.11,VWS V14.01,2013-01-26 03:35:00,
2013-01-25 21:37:00,35.5,34.0,30.22,North,352,0.0,0.0,94,0.00,,---,0.11,VWS V14.01,2013-01-26 03:37:00,
2013-01-25 21:39:00,35.5,34.0,30.23,North,352,0.0,0.0,94,0.00,,---,0.11,VWS V14.01,2013-01-26 03:39:00,
2013-01-25 21:41:00,35.4,33.8,30.22,North,352,0.0,0.0,94,0.00,,---,0.11,VWS V14.01,2013-01-26 03:41:00,
2013-01-25 21:42:00,35.4,33.8,30.23,North,352,0.0,0.0,94,0.00,,---,0.11,VWS V14.01,2013-01-26 03:42:00,
2013-01-25 21:44:00,35.3,33.8,30.23,North,352,0.0,0.0,94,0.00,,---,0.11,VWS V14.01,2013-01-26 03:44:00,
2013-01-25 21:46:00,35.3,33.8,30.23,North,352,0.0,0.0,94,0.00,,---,0.11,VWS V14.01,2013-01-26 03:46:00,
2013-01-25 21:47:00,35.3,33.8,30.23,North,352,0.0,0.0,94,0.00,,---,0.11,VWS V14.01,2013-01-26 03:47:00,
2013-01-25 21:49:00,35.2,33.7,30.24,North,352,0.0,0.0,94,0.00,,---,0.11,VWS V14.01,2013-01-26 03:49:00,
2013-01-25 21:51:00,35.1,33.5,30.24,North,352,0.0,0.0,94,0.00,,---,0.11,VWS V14.01,2013-01-26 03:51:00,
2013-01-25 21:52:00,35.1,33.5,30.24,North,352,0.0,0.0,94,0.00,,---,0.11,VWS V14.01,2013-01-26 03:52:00,
2013-01-25 21:54:00,35.0,33.5,30.23,North,352,0.0,0.0,94,0.00,,---,0.11,VWS V14.01,2013-01-26 03:54:00,
2013-01-25 21:56:00,34.9,33.3,30.23,North,352,0.0,0.0,94,0.00,,---,0.11,VWS V14.01,2013-01-26 03:56:00,
2013-01-25 21:57:00,34.9,33.3,30.23,North,352,0.0,0.0,94,0.00,,---,0.11,VWS V14.01,2013-01-26 03:57:00,
2013-01-25 21:59:00,34.8,33.2,30.23,North,352,0.0,0.0,94,0.00,,---,0.11,VWS V14.01,2013-01-26 03:59:00,
2013-01-25 22:01:00,34.8,33.2,30.23,North,352,0.0,0.0,94,0.00,,---,0.11,VWS V14.01,2013-01-26 04:01:00,
2013-01-25 22:02:00,34.7,33.2,30.23,North,352,0.0,0.0,94,0.00,,---,0.11,VWS V14.01,2013-01-26 04:02:00,
2013-01-25 22:03:00,34.7,33.2,30.23,North,352,0.0,0.0,94,0.00,,---,0.11,VWS V14.01,2013-01-26 04:03:00,
2013-01-25 22:04:00,34.6,33.0,30.24,North,352,0.0,0.0,94,0.00,,---,0.11,VWS V14.01,2013-01-26 04:04:00,
2013-01-25 22:06:00,34.5,33.0,30.24,North,352,0.0,0.0,94,0.00,,---,0.11,VWS V14.01,2013-01-26 04:06:00,
2013-01-25 22:08:00,34.5,33.0,30.23,North,352,0.0,0.0,94,0.00,,---,0.11,VWS V14.01,2013-01-26 04:08:00,
2013-01-25 22:09:00,34.4,32.9,30.23,North,352,0.0,0.0,94,0.00,,---,0.11,VWS V14.01,2013-01-26 04:09:00,
2013-01-25 22:11:00,34.3,32.8,30.23,North,352,0.0,0.0,94,0.00,,---,0.11,VWS V14.01,2013-01-26 04:11:00,
2013-01-25 22:13:00,34.2,32.7,30.23,North,352,0.0,0.0,94,0.00,,---,0.11,VWS V14.01,2013-01-26 04:13:00,
2013-01-25 22:14:00,34.1,32.6,30.23,North,352,0.0,0.0,94,0.00,,---,0.11,VWS V14.01,2013-01-26 04:14:00,
2013-01-25 22:17:00,34.1,32.6,30.23,North,352,0.0,0.0,94,0.00,,---,0.11,VWS V14.01,2013-01-26 04:17:00,
2013-01-25 22:18:00,34.1,32.6,30.23,North,352,0.0,0.0,94,0.00,,---,0.11,VWS V14.01,2013-01-26 04:18:00,
2013-01-25 22:20:00,34.1,32.6,30.23,North,352,0.0,0.0,94,0.00,,---,0.11,VWS V14.01,2013-01-26 04:20:00,
2013-01-25 22:22:00,34.3,33.0,30.23,North,352,0.0,0.0,95,0.00,,---,0.11,VWS V14.01,2013-01-26 04:22:00,
2013-01-25 22:23:00,34.3,33.0,30.23,North,352,0.0,0.0,95,0.00,,---,0.11,VWS V14.01,2013-01-26 04:23:00,
2013-01-25 22:25:00,34.3,33.0,30.23,North,352,0.0,0.0,95,0.00,,---,0.11,VWS V14.01,2013-01-26 04:25:00,
2013-01-25 22:27:00,34.2,32.9,30.23,North,352,0.0,0.0,95,0.00,,---,0.11,VWS V14.01,2013-01-26 04:27:00,
2013-01-25 22:28:00,34.2,32.9,30.23,North,352,0.0,0.0,95,0.00,,---,0.11,VWS V14.01,2013-01-26 04:28:00,
2013-01-25 22:30:00,34.2,32.9,30.23,North,352,0.0,0.0,95,0.00,,---,0.11,VWS V14.01,2013-01-26 04:30:00,
2013-01-25 22:32:00,34.1,32.6,30.23,North,352,0.0,0.0,94,0.00,,---,0.11,VWS V14.01,2013-01-26 04:32:00,
2013-01-25 22:33:00,34.0,32.7,30.23,North,352,0.0,0.0,95,0.00,,---,0.11,VWS V14.01,2013-01-26 04:33:00,
2013-01-25 22:35:00,34.0,32.7,30.23,North,352,0.0,0.0,95,0.00,,---,0.11,VWS V14.01,2013-01-26 04:35:00,
2013-01-25 22:37:00,34.0,32.7,30.24,North,352,0.0,0.0,95,0.00,,---,0.11,VWS V14.01,2013-01-26 04:37:00,
2013-01-25 22:38:00,33.9,32.6,30.24,North,352,0.0,0.0,95,0.00,,---,0.11,VWS V14.01,2013-01-26 04:38:00,
2013-01-25 22:40:00,33.9,32.6,30.24,North,352,0.0,0.0,95,0.00,,---,0.11,VWS V14.01,2013-01-26 04:40:00,
2013-01-25 22:42:00,33.9,32.6,30.25,North,352,0.0,0.0,95,0.00,,---,0.11,VWS V14.01,2013-01-26 04:42:00,
2013-01-25 22:43:00,34.0,32.7,30.25,North,352,0.0,0.0,95,0.00,,---,0.11,VWS V14.01,2013-01-26 04:43:00,
2013-01-25 22:45:00,33.9,32.6,30.25,North,352,0.0,0.0,95,0.00,,---,0.11,VWS V14.01,2013-01-26 04:45:00,
2013-01-25 22:47:00,33.9,32.6,30.24,North,352,0.0,0.0,95,0.00,,---,0.11,VWS V14.01,2013-01-26 04:47:00,
2013-01-25 22:48:00,33.9,32.6,30.24,North,352,0.0,0.0,95,0.00,,---,0.11,VWS V14.01,2013-01-26 04:48:00,
2013-01-25 22:50:00,33.9,32.6,30.24,North,352,0.0,0.0,95,0.00,,---,0.11,VWS V14.01,2013-01-26 04:50:00,
2013-01-25 22:52:00,33.8,32.5,30.24,North,352,0.0,0.0,95,0.00,,---,0.11,VWS V14.01,2013-01-26 04:52:00,
2013-01-25 22:53:00,33.8,32.5,30.25,North,352,0.0,0.0,95,0.00,,---,0.11,VWS V14.01,2013-01-26 04:53:00,
2013-01-25 22:54:00,33.9,32.6,30.25,North,352,0.0,0.0,95,0.00,,---,0.11,VWS V14.01,2013-01-26 04:54:00,
2013-01-25 22:55:00,33.9,32.6,30.25,North,352,0.0,0.0,95,0.00,,---,0.11,VWS V14.01,2013-01-26 04:55:00,
2013-01-25 22:57:00,33.9,32.6,30.25,North,352,0.0,0.0,95,0.00,,---,0.11,VWS V14.01,2013-01-26 04:57:00,
2013-01-25 22:59:00,33.8,33.0,30.25,North,352,0.0,0.0,95,0.00,,,0.11,weatherlink.com 1.10,2013-01-26 04:59:00,
2013-01-25 23:00:00,33.8,32.5,30.25,North,352,0.0,0.0,95,0.00,,---,0.11,VWS V14.01,2013-01-26 05:00:00,
2013-01-25 23:01:00,33.9,32.6,30.25,North,352,0.0,0.0,95,0.00,,---,0.11,VWS V14.01,2013-01-26 05:01:00,
2013-01-25 23:03:00,33.9,32.6,30.25,North,352,0.0,0.0,95,0.00,,---,0.11,VWS V14.01,2013-01-26 05:03:00,
2013-01-25 23:05:00,33.9,32.6,30.25,North,352,0.0,0.0,95,0.00,,---,0.11,VWS V14.01,2013-01-26 05:05:00,
2013-01-25 23:06:00,33.9,32.6,30.25,North,352,0.0,0.0,95,0.00,,---,0.11,VWS V14.01,2013-01-26 05:06:00,
2013-01-25 23:08:00,33.9,32.6,30.25,North,352,0.0,0.0,95,0.00,,---,0.11,VWS V14.01,2013-01-26 05:08:00,
2013-01-25 23:10:00,33.8,32.5,30.25,North,352,0.0,0.0,95,0.00,,---,0.11,VWS V14.01,2013-01-26 05:10:00,
2013-01-25 23:11:00,33.7,32.4,30.25,North,352,0.0,0.0,95,0.00,,---,0.11,VWS V14.01,2013-01-26 05:11:00,
2013-01-25 23:13:00,33.7,32.4,30.25,North,352,0.0,0.0,95,0.00,,---,0.11,VWS V14.01,2013-01-26 05:13:00,
2013-01-25 23:15:00,33.7,32.4,30.25,North,352,0.0,0.0,95,0.00,,---,0.11,VWS V14.01,2013-01-26 05:15:00,
2013-01-25 23:17:00,33.6,32.3,30.25,North,352,0.0,0.0,95,0.00,,---,0.11,VWS V14.01,2013-01-26 05:17:00,
2013-01-25 23:19:00,33.6,32.3,30.25,North,352,0.0,0.0,95,0.00,,---,0.11,VWS V14.01,2013-01-26 05:19:00,
2013-01-25 23:20:00,33.5,32.2,30.25,North,352,0.0,0.0,95,0.00,,---,0.11,VWS V14.01,2013-01-26 05:20:00,
2013-01-25 23:22:00,33.5,32.2,30.25,North,352,0.0,0.0,95,0.00,,---,0.11,VWS V14.01,2013-01-26 05:22:00,
2013-01-25 23:24:00,33.4,32.1,30.26,North,352,0.0,0.0,95,0.00,,---,0.11,VWS V14.01,2013-01-26 05:24:00,
2013-01-25 23:25:00,33.3,32.0,30.26,North,352,0.0,0.0,95,0.00,,---,0.11,VWS V14.01,2013-01-26 05:25:00,
2013-01-25 23:26:00,33.3,32.0,30.26,North,352,0.0,0.0,95,0.00,,---,0.11,VWS V14.01,2013-01-26 05:26:00,
2013-01-25 23:27:00,33.3,32.0,30.26,North,352,0.0,0.0,95,0.00,,---,0.11,VWS V14.01,2013-01-26 05:27:00,
2013-01-25 23:29:00,33.3,32.3,30.25,North,352,0.0,0.0,96,0.00,,---,0.11,VWS V14.01,2013-01-26 05:29:00,
2013-01-25 23:31:00,33.4,32.4,30.25,North,352,0.0,0.0,96,0.00,,---,0.11,VWS V14.01,2013-01-26 05:31:00,
2013-01-25 23:32:00,33.4,32.4,30.25,North,352,0.0,0.0,96,0.00,,---,0.11,VWS V14.01,2013-01-26 05:32:00,
2013-01-25 23:34:00,33.4,32.4,30.25,North,352,0.0,0.0,96,0.00,,---,0.11,VWS V14.01,2013-01-26 05:34:00,
2013-01-25 23:36:00,33.5,32.5,30.25,North,352,0.0,0.0,96,0.00,,---,0.11,VWS V14.01,2013-01-26 05:36:00,
2013-01-25 23:37:00,33.5,32.5,30.25,North,352,0.0,0.0,96,0.00,,---,0.11,VWS V14.01,2013-01-26 05:37:00,
2013-01-25 23:39:00,33.6,32.6,30.25,North,352,0.0,0.0,96,0.00,,---,0.11,VWS V14.01,2013-01-26 05:39:00,
2013-01-25 23:41:00,33.6,32.6,30.26,North,352,0.0,0.0,96,0.00,,---,0.11,VWS V14.01,2013-01-26 05:41:00,
2013-01-25 23:42:00,33.6,32.6,30.26,North,352,0.0,0.0,96,0.00,,---,0.11,VWS V14.01,2013-01-26 05:42:00,
2013-01-25 23:44:00,33.6,32.6,30.26,North,352,0.0,0.0,96,0.00,,---,0.11,VWS V14.01,2013-01-26 05:44:00,
2013-01-25 23:46:00,33.7,32.7,30.26,North,352,0.0,0.0,96,0.00,,---,0.11,VWS V14.01,2013-01-26 05:46:00,
2013-01-25 23:47:00,33.6,32.6,30.26,North,352,0.0,0.0,96,0.00,,---,0.11,VWS V14.01,2013-01-26 05:47:00,
2013-01-25 23:49:00,33.6,32.6,30.26,North,352,0.0,0.0,96,0.00,,---,0.11,VWS V14.01,2013-01-26 05:49:00,
2013-01-25 23:51:00,33.6,32.6,30.25,North,352,0.0,0.0,96,0.00,,---,0.11,VWS V14.01,2013-01-26 05:51:00,
2013-01-25 23:52:00,33.7,32.7,30.25,North,352,0.0,0.0,96,0.00,,---,0.11,VWS V14.01,2013-01-26 05:52:00,
2013-01-25 23:55:00,33.7,32.7,30.25,North,352,0.0,0.0,96,0.00,,---,0.11,VWS V14.01,2013-01-26 05:55:00,
2013-01-25 23:56:00,33.7,32.7,30.25,North,352,0.0,0.0,96,0.00,,---,0.11,VWS V14.01,2013-01-26 05:56:00,
2013-01-25 23:57:00,33.7,32.7,30.24,North,352,0.0,0.0,96,0.00,,---,0.11,VWS V14.01,2013-01-26 05:57:00,